M I D A S
Marine Information and Data Acquisition System
Tripno 987 of the Zeeleeuw from 2005-11-24 10:02:20 to 2005-11-24 11:46:52
Back to CruiseResearch ActivitiesStationsMapUnderway DataData graphs

EquipmentUnitsComment
TimeDGPSUTC
LatitudeDGPSDM.mWGS84
LongitudeDGPSDM.mWGS84
TemperatureSBE03/SBE38deg celciusITS90
ConductivitySBE21S/mITS90
SalinitySBE21 Practical Salinity Units
ChlorophylAChelsea fluorimeterg/lCalibrated in Aceton
Missing or incorrect values are displayed as -999
Sea surface data collected by the RV Zeeleeuw from 2005-11-24 06:05:56 to 2005-11-24 12:00:24
                                                                                    Next 1000 lines
Time Latitude Longitude Temperature Conductivity Salinity ChlorophylA
2005-11-24 06:06:04 51°13.6 2°56.095 -999 4.206793 32.530797 -0.74754
2005-11-24 06:06:10 51°13.599 2°56.095 -999 4.206793 32.530144 -0.74754
2005-11-24 06:06:16 51°13.599 2°56.095 -999 4.206793 32.530144 -0.74754
2005-11-24 06:06:20 51°13.599 2°56.095 -999 4.206896 32.530387 -0.74754
2005-11-24 06:06:26 51°13.599 2°56.094 -999 4.206896 32.530387 -0.74754
2005-11-24 06:06:31 51°13.599 2°56.094 -999 4.206896 32.530387 -0.74754
2005-11-24 06:06:35 51°13.599 2°56.095 -999 4.206896 32.530387 -0.74754
2005-11-24 06:06:40 51°13.599 2°56.094 -999 4.207 32.531282 -0.74754
2005-11-24 06:06:46 51°13.599 2°56.094 -999 4.207 32.53063 -0.74754
2005-11-24 06:06:50 51°13.599 2°56.094 -999 4.207 32.53063 -0.74754
2005-11-24 06:06:56 51°13.598 2°56.094 -999 4.207 32.529977 -0.74754
2005-11-24 06:07:00 51°13.598 2°56.094 -999 4.207 32.529977 -0.74754
2005-11-24 06:07:06 51°13.598 2°56.094 -999 4.207 32.529977 -0.74754
2005-11-24 06:07:11 51°13.598 2°56.094 -999 4.207104 32.53022 -0.74754
2005-11-24 06:07:16 51°13.598 2°56.094 -999 4.207104 32.53022 -0.74754
2005-11-24 06:07:20 51°13.598 2°56.094 -999 4.207104 32.53022 -0.74754
2005-11-24 06:07:26 51°13.598 2°56.094 -999 4.207104 32.529568 -0.74754
2005-11-24 06:07:31 51°13.598 2°56.094 -999 4.207208 32.529811 -0.74754
2005-11-24 06:07:36 51°13.598 2°56.094 -999 4.207208 32.529811 -0.74754
2005-11-24 06:07:40 51°13.598 2°56.094 -999 4.207208 32.529811 -0.74754
2005-11-24 06:07:46 51°13.598 2°56.094 -999 4.207208 32.529811 -0.74754
2005-11-24 06:07:50 51°13.598 2°56.094 -999 4.207311 32.530706 -0.74754
2005-11-24 06:07:56 51°13.598 2°56.094 -999 4.207311 32.530054 -0.74754
2005-11-24 06:08:00 51°13.599 2°56.094 -999 4.207311 32.530054 -0.74754
2005-11-24 06:08:06 51°13.599 2°56.094 -999 4.207311 32.530054 -0.74754
2005-11-24 06:08:10 51°13.599 2°56.094 -999 4.207415 32.530296 -0.74754
2005-11-24 06:08:15 51°13.599 2°56.094 -999 4.207415 32.530296 -0.74754
2005-11-24 06:08:21 51°13.599 2°56.094 -999 4.207415 32.530296 -0.74754
2005-11-24 06:08:26 51°13.599 2°56.094 -999 4.207415 32.530296 -0.74754
2005-11-24 06:08:31 51°13.599 2°56.095 -999 4.207415 32.529644 -0.74754
2005-11-24 06:08:36 51°13.599 2°56.095 -999 4.207415 32.529644 -0.74754
2005-11-24 06:08:40 51°13.599 2°56.095 -999 4.207519 32.529887 -0.74754
2005-11-24 06:08:46 51°13.599 2°56.095 -999 4.207519 32.529887 -0.74754
2005-11-24 06:08:50 51°13.599 2°56.095 -999 4.207519 32.529887 -0.74754
2005-11-24 06:08:56 51°13.598 2°56.095 -999 4.207519 32.529235 -0.74754
2005-11-24 06:09:00 51°13.598 2°56.095 -999 4.207622 32.53013 -0.74754
2005-11-24 06:09:06 51°13.598 2°56.095 -999 4.207622 32.53013 -0.74754
2005-11-24 06:09:11 51°13.599 2°56.095 -999 4.207622 32.529477 -0.74754
2005-11-24 06:09:16 51°13.599 2°56.094 -999 4.207622 32.53013 -0.74754
2005-11-24 06:09:20 51°13.599 2°56.095 -999 4.207622 32.529477 -0.74754
2005-11-24 06:09:26 51°13.599 2°56.095 -999 4.207622 32.529477 -0.74754
2005-11-24 06:09:31 51°13.598 2°56.095 -999 4.207726 32.52972 -0.74754
2005-11-24 06:09:36 51°13.598 2°56.095 -999 4.207726 32.52972 -0.74754
2005-11-24 06:09:40 51°13.598 2°56.095 -999 4.207726 32.529068 -0.74754
2005-11-24 06:09:45 51°13.598 2°56.095 -999 4.207726 32.529068 -0.74754
2005-11-24 06:09:51 51°13.598 2°56.094 -999 4.207726 32.529068 -0.74754
2005-11-24 06:09:56 51°13.598 2°56.094 -999 4.20783 32.529963 -0.74754
2005-11-24 06:10:00 51°13.598 2°56.094 -999 4.20783 32.529311 -0.74754
2005-11-24 06:10:06 51°13.599 2°56.094 -999 4.20783 32.529311 -0.74754
2005-11-24 06:10:11 51°13.599 2°56.094 -999 4.20783 32.529311 -0.74754
2005-11-24 06:10:16 51°13.599 2°56.095 -999 4.20783 32.528659 -0.74754
2005-11-24 06:10:20 51°13.599 2°56.095 -999 4.207933 32.529554 -0.74754
2005-11-24 06:10:25 51°13.599 2°56.095 -999 4.207933 32.528902 -0.74754
2005-11-24 06:10:31 51°13.599 2°56.095 -999 4.207933 32.528249 -0.74754
2005-11-24 06:10:36 51°13.599 2°56.095 -999 4.207933 32.528249 -0.74754
2005-11-24 06:10:41 51°13.598 2°56.095 -999 4.207933 32.528249 -0.74754
2005-11-24 06:10:46 51°13.599 2°56.095 -999 4.208037 32.529144 -0.74754
2005-11-24 06:10:51 51°13.599 2°56.095 -999 4.208037 32.529144 -0.74754
2005-11-24 06:10:55 51°13.599 2°56.095 -999 4.208037 32.528492 -0.74754
2005-11-24 06:11:00 51°13.599 2°56.095 -999 4.208037 32.528492 -0.74754
2005-11-24 06:11:06 51°13.599 2°56.095 -999 4.208037 32.528492 -0.74754
2005-11-24 06:11:10 51°13.599 2°56.095 -999 4.208141 32.528735 -0.74754
2005-11-24 06:11:15 51°13.599 2°56.095 -999 4.208141 32.528083 -0.74754
2005-11-24 06:11:20 51°13.599 2°56.095 -999 4.208141 32.528083 -0.74754
2005-11-24 06:11:24 51°13.599 2°56.095 -999 4.208141 32.528083 -0.74754
2005-11-24 06:11:31 51°13.599 2°56.095 -999 4.208141 32.527431 -0.74754
2005-11-24 06:11:36 51°13.599 2°56.095 -999 4.208141 32.527431 -0.74754
2005-11-24 06:11:40 51°13.598 2°56.095 -999 4.208244 32.528326 -0.74754
2005-11-24 06:11:44 51°13.598 2°56.095 -999 4.208244 32.528326 -0.74754
2005-11-24 06:11:50 51°13.598 2°56.095 -999 4.208244 32.527674 -0.74754
2005-11-24 06:11:56 51°13.598 2°56.095 -999 4.208244 32.527674 -0.74754
2005-11-24 06:12:00 51°13.598 2°56.095 -999 4.208348 32.527917 -0.74754
2005-11-24 06:12:05 51°13.598 2°56.095 -999 4.208348 32.527917 -0.74754
2005-11-24 06:12:11 51°13.598 2°56.094 -999 4.208348 32.527917 -0.74754
2005-11-24 06:12:15 51°13.598 2°56.094 -999 4.208348 32.527917 -0.74754
2005-11-24 06:12:20 51°13.598 2°56.091 -999 4.208348 32.527265 -0.74754
2005-11-24 06:12:25 51°13.598 2°56.089 -999 4.208348 32.527265 -0.74754
2005-11-24 06:12:30 51°13.598 2°56.086 -999 4.208348 32.527265 -0.74754
2005-11-24 06:12:35 51°13.599 2°56.083 -999 4.208452 32.528159 -0.74754
2005-11-24 06:12:40 51°13.599 2°56.08 -999 4.208452 32.527507 -0.74754
2005-11-24 06:12:44 51°13.599 2°56.077 -999 4.208452 32.527507 -0.74754
2005-11-24 06:12:50 51°13.6 2°56.072 -999 4.208452 32.527507 -0.74754
2005-11-24 06:12:56 51°13.601 2°56.067 -999 4.208555 32.52775 -0.74754
2005-11-24 06:13:00 51°13.602 2°56.064 -999 4.208555 32.52775 -0.74754
2005-11-24 06:13:06 51°13.602 2°56.06 -999 4.208555 32.52775 -0.74754
2005-11-24 06:13:10 51°13.603 2°56.058 -999 4.208555 32.52775 -0.74754
2005-11-24 06:13:16 51°13.602 2°56.057 -999 4.208555 32.527098 -0.74754
2005-11-24 06:13:20 51°13.602 2°56.056 -999 4.208659 32.527993 -0.74754
2005-11-24 06:13:26 51°13.602 2°56.057 -999 4.208659 32.527341 -0.74754
2005-11-24 06:13:30 51°13.602 2°56.058 -999 4.208659 32.527341 -0.74754
2005-11-24 06:13:36 51°13.601 2°56.061 -999 4.208659 32.527341 -0.74754
2005-11-24 06:13:40 51°13.6 2°56.063 -999 4.208659 32.527341 -0.71383
2005-11-24 06:13:46 51°13.599 2°56.067 -999 4.208763 32.527584 -0.74754
2005-11-24 06:13:50 51°13.598 2°56.07 -999 4.208763 32.527584 -0.74754
2005-11-24 06:13:55 51°13.597 2°56.075 -999 4.208763 32.527584 -0.74754
2005-11-24 06:14:00 51°13.596 2°56.08 -999 4.208763 32.527584 -0.74754
2005-11-24 06:14:05 51°13.594 2°56.085 -999 4.208763 32.527584 -0.74754
2005-11-24 06:14:10 51°13.592 2°56.091 -999 4.208763 32.526932 -0.74754
2005-11-24 06:14:15 51°13.589 2°56.097 -999 4.208867 32.527827 -0.74754
2005-11-24 06:14:20 51°13.587 2°56.103 -999 4.208867 32.527175 -0.74754
2005-11-24 06:14:25 51°13.584 2°56.111 -999 4.208867 32.527175 -0.74754
2005-11-24 06:14:30 51°13.581 2°56.117 -999 4.208867 32.527175 -0.74754
2005-11-24 06:14:35 51°13.577 2°56.125 -999 4.208867 32.527175 -0.74754
2005-11-24 06:14:40 51°13.574 2°56.132 -999 4.20897 32.527418 -0.74754
2005-11-24 06:14:45 51°13.571 2°56.14 -999 4.20897 32.526766 -0.74754
2005-11-24 06:14:50 51°13.567 2°56.148 -999 4.20897 32.526766 -0.74754
2005-11-24 06:14:55 51°13.563 2°56.156 -999 4.209074 32.527009 -0.74754
2005-11-24 06:15:00 51°13.56 2°56.165 -999 4.209074 32.527009 -0.74754
2005-11-24 06:15:05 51°13.556 2°56.173 -999 4.209074 32.527009 -0.74754
2005-11-24 06:15:10 51°13.552 2°56.181 -999 4.209074 32.527009 -0.74754
2005-11-24 06:15:15 51°13.549 2°56.188 -999 4.209074 32.527661 -0.74754
2005-11-24 06:15:20 51°13.546 2°56.194 -999 4.209074 32.527009 -0.74754
2005-11-24 06:15:25 51°13.544 2°56.199 -999 4.209074 32.527009 -0.74754
2005-11-24 06:15:30 51°13.542 2°56.203 -999 4.209178 32.527904 -0.74754
2005-11-24 06:15:35 51°13.539 2°56.207 -999 4.209178 32.527904 -0.74754
2005-11-24 06:15:40 51°13.538 2°56.209 -999 4.209074 32.527009 -0.74754
2005-11-24 06:15:45 51°13.536 2°56.211 -999 4.209178 32.528556 -0.74754
2005-11-24 06:15:50 51°13.535 2°56.212 -999 4.209178 32.528556 -0.74754
2005-11-24 06:15:55 51°13.534 2°56.213 -999 4.209178 32.528556 -0.74754
2005-11-24 06:16:00 51°13.534 2°56.214 -999 4.209178 32.528556 -0.74754
2005-11-24 06:16:04 51°13.534 2°56.214 -999 4.209178 32.528556 -0.74754
2005-11-24 06:16:10 51°13.534 2°56.214 -999 4.209178 32.528556 -0.74754
2005-11-24 06:16:15 51°13.535 2°56.214 -999 4.209178 32.528556 -0.74754
2005-11-24 06:16:20 51°13.537 2°56.214 -999 4.209281 32.529451 -0.74754
2005-11-24 06:16:25 51°13.538 2°56.213 -999 4.209281 32.528799 -0.74754
2005-11-24 06:16:30 51°13.54 2°56.214 -999 4.209281 32.528147 -0.74754
2005-11-24 06:16:36 51°13.542 2°56.214 -999 4.209281 32.528147 -0.74754
2005-11-24 06:16:40 51°13.543 2°56.214 -999 4.209281 32.527495 -0.74754
2005-11-24 06:16:46 51°13.544 2°56.214 -999 4.209385 32.527738 -0.74754
2005-11-24 06:16:50 51°13.544 2°56.214 -999 4.209385 32.527086 -0.74754
2005-11-24 06:16:56 51°13.543 2°56.214 -999 4.209385 32.526434 -0.74754
2005-11-24 06:17:00 51°13.542 2°56.214 -999 4.209385 32.525782 -0.74754
2005-11-24 06:17:04 51°13.542 2°56.214 -999 4.209385 32.525782 -0.74754
2005-11-24 06:17:10 51°13.541 2°56.213 -999 4.209385 32.52513 -0.74754
2005-11-24 06:17:16 51°13.539 2°56.212 -999 4.209489 32.526025 -0.74754
2005-11-24 06:17:20 51°13.538 2°56.211 -999 4.209489 32.525373 -0.74754
2005-11-24 06:17:26 51°13.536 2°56.21 -999 4.209489 32.526025 -0.74754
2005-11-24 06:17:31 51°13.535 2°56.209 -999 4.209489 32.526677 -0.74754
2005-11-24 06:17:36 51°13.534 2°56.209 -999 4.209489 32.526677 -0.74754
2005-11-24 06:17:40 51°13.534 2°56.209 -999 4.209592 32.527572 -0.74754
2005-11-24 06:17:45 51°13.534 2°56.209 -999 4.209592 32.527572 -0.74754
2005-11-24 06:17:50 51°13.534 2°56.21 -999 4.209592 32.527572 -0.74754
2005-11-24 06:17:55 51°13.535 2°56.211 -999 4.209592 32.52692 -0.74754
2005-11-24 06:18:00 51°13.535 2°56.212 -999 4.209592 32.52692 -0.74754
2005-11-24 06:18:05 51°13.536 2°56.214 -999 4.209592 32.526268 -0.74754
2005-11-24 06:18:10 51°13.537 2°56.216 -999 4.209592 32.526268 -0.74754
2005-11-24 06:18:15 51°13.538 2°56.218 -999 4.209696 32.526511 -0.74754
2005-11-24 06:18:20 51°13.539 2°56.22 -999 4.209696 32.525859 -0.74754
2005-11-24 06:18:26 51°13.54 2°56.221 -999 4.209696 32.525859 -0.74754
2005-11-24 06:18:31 51°13.54 2°56.221 -999 4.2098 32.526102 -0.74754
2005-11-24 06:18:36 51°13.539 2°56.22 -999 4.2098 32.526102 -0.74754
2005-11-24 06:18:40 51°13.539 2°56.218 -999 4.2098 32.524799 -0.74754
2005-11-24 06:18:46 51°13.538 2°56.214 -999 4.2098 32.524147 -0.74754
2005-11-24 06:18:50 51°13.538 2°56.211 -999 4.2098 32.524147 -0.74754
2005-11-24 06:18:56 51°13.538 2°56.205 -999 4.2098 32.524799 -0.74754
2005-11-24 06:19:00 51°13.538 2°56.202 -999 4.209903 32.526997 -0.74754
2005-11-24 06:19:06 51°13.539 2°56.196 -999 4.209903 32.526997 -0.74754
2005-11-24 06:19:11 51°13.54 2°56.191 -999 4.2098 32.526754 -0.74754
2005-11-24 06:19:15 51°13.541 2°56.188 -999 4.209903 32.5283 -0.74754
2005-11-24 06:19:20 51°13.542 2°56.183 -999 4.209903 32.5283 -0.74754
2005-11-24 06:19:24 51°13.543 2°56.18 -999 4.209903 32.5283 -0.74754
2005-11-24 06:19:30 51°13.544 2°56.174 -999 4.209903 32.527648 -0.74754
2005-11-24 06:19:35 51°13.546 2°56.17 -999 4.209903 32.527648 -0.74754
2005-11-24 06:19:40 51°13.547 2°56.166 -999 4.209903 32.526997 -0.74754
2005-11-24 06:19:45 51°13.549 2°56.162 -999 4.210007 32.52724 -0.74754
2005-11-24 06:19:50 51°13.55 2°56.158 -999 4.210007 32.52724 -0.74754
2005-11-24 06:19:55 51°13.552 2°56.154 -999 4.210007 32.525936 -0.74754
2005-11-24 06:20:00 51°13.554 2°56.15 -999 4.210007 32.525936 -0.74754
2005-11-24 06:20:05 51°13.555 2°56.147 -999 4.210007 32.525936 -0.74754
2005-11-24 06:20:10 51°13.556 2°56.143 -999 4.210007 32.525284 -0.74754
2005-11-24 06:20:15 51°13.557 2°56.141 -999 4.210007 32.525284 -0.74754
2005-11-24 06:20:20 51°13.558 2°56.138 -999 4.210111 32.525527 -0.74754
2005-11-24 06:20:25 51°13.559 2°56.136 -999 4.210111 32.524876 -0.74754
2005-11-24 06:20:30 51°13.56 2°56.134 -999 4.210111 32.524224 -0.74754
2005-11-24 06:20:35 51°13.56 2°56.132 -999 4.210111 32.524224 -0.74754
2005-11-24 06:20:40 51°13.561 2°56.13 -999 4.210111 32.524224 -0.74754
2005-11-24 06:20:45 51°13.562 2°56.129 -999 4.210214 32.525119 -0.74754
2005-11-24 06:20:50 51°13.563 2°56.127 -999 4.210214 32.524467 -0.74754
2005-11-24 06:20:55 51°13.563 2°56.125 -999 4.210111 32.523573 -0.74754
2005-11-24 06:21:00 51°13.564 2°56.123 -999 4.210214 32.524467 -0.74754
2005-11-24 06:21:05 51°13.565 2°56.12 -999 4.210214 32.524467 -0.74754
2005-11-24 06:21:10 51°13.566 2°56.118 -999 4.210214 32.523816 -0.74754
2005-11-24 06:21:15 51°13.567 2°56.115 -999 4.210214 32.523164 -0.74754
2005-11-24 06:21:20 51°13.567 2°56.113 -999 4.210214 32.523164 -0.74754
2005-11-24 06:21:25 51°13.568 2°56.111 -999 4.210318 32.524059 -0.74754
2005-11-24 06:21:30 51°13.569 2°56.108 -999 4.210318 32.524059 -0.74754
2005-11-24 06:21:35 51°13.57 2°56.106 -999 4.210318 32.524059 -0.74754
2005-11-24 06:21:40 51°13.57 2°56.104 -999 4.210318 32.523407 -0.74754
2005-11-24 06:21:45 51°13.571 2°56.102 -999 4.210318 32.523407 -0.74754
2005-11-24 06:21:50 51°13.572 2°56.1 -999 4.210422 32.524301 -0.74754
2005-11-24 06:21:55 51°13.573 2°56.097 -999 4.210422 32.524301 -0.74754
2005-11-24 06:22:00 51°13.574 2°56.094 -999 4.210422 32.524301 -0.74754
2005-11-24 06:22:05 51°13.575 2°56.091 -999 4.210422 32.524301 -0.74754
2005-11-24 06:22:10 51°13.577 2°56.088 -999 4.210422 32.52365 -0.74754
2005-11-24 06:22:15 51°13.578 2°56.085 -999 4.210422 32.52365 -0.74754
2005-11-24 06:22:20 51°13.579 2°56.082 -999 4.210422 32.52365 -0.74754
2005-11-24 06:22:25 51°13.58 2°56.079 -999 4.210422 32.52365 -0.74754
2005-11-24 06:22:30 51°13.581 2°56.076 -999 4.210525 32.524544 -0.74754
2005-11-24 06:22:35 51°13.583 2°56.073 -999 4.210525 32.524544 -0.74754
2005-11-24 06:22:40 51°13.584 2°56.07 -999 4.210525 32.523893 -0.74754
2005-11-24 06:22:45 51°13.585 2°56.067 -999 4.210525 32.523893 -0.74754
2005-11-24 06:22:50 51°13.586 2°56.065 -999 4.210525 32.523893 -0.74754
2005-11-24 06:22:55 51°13.587 2°56.063 -999 4.210525 32.523241 -0.74754
2005-11-24 06:23:00 51°13.589 2°56.06 -999 4.210525 32.523241 -0.74754
2005-11-24 06:23:05 51°13.59 2°56.058 -999 4.210525 32.523241 -0.74754
2005-11-24 06:23:10 51°13.591 2°56.055 -999 4.210629 32.523484 -0.74754
2005-11-24 06:23:15 51°13.592 2°56.053 -999 4.210629 32.523484 -0.74754
2005-11-24 06:23:20 51°13.593 2°56.051 -999 4.210629 32.523484 -0.74754
2005-11-24 06:23:25 51°13.594 2°56.048 -999 4.210629 32.522833 -0.74754
2005-11-24 06:23:30 51°13.595 2°56.046 -999 4.210629 32.522833 -0.74754
2005-11-24 06:23:35 51°13.596 2°56.044 -999 4.210629 32.522833 -0.74754
2005-11-24 06:23:40 51°13.597 2°56.041 -999 4.210733 32.523727 -0.74754
2005-11-24 06:23:45 51°13.599 2°56.039 -999 4.210629 32.522833 -0.74754
2005-11-24 06:23:50 51°13.6 2°56.037 -999 4.210733 32.523076 -0.74754
2005-11-24 06:23:55 51°13.601 2°56.035 -999 4.210733 32.523076 -0.74754
2005-11-24 06:24:00 51°13.601 2°56.034 -999 4.210733 32.523076 -0.74754
2005-11-24 06:24:05 51°13.602 2°56.033 -999 4.210733 32.523076 -0.74754
2005-11-24 06:24:10 51°13.603 2°56.032 -999 4.210837 32.52397 -0.74754
2005-11-24 06:24:15 51°13.603 2°56.032 -999 4.210733 32.522425 -0.74754
2005-11-24 06:24:20 51°13.603 2°56.032 -999 4.210837 32.523319 -0.74754
2005-11-24 06:24:25 51°13.604 2°56.031 -999 4.210837 32.523319 -0.74754
2005-11-24 06:24:30 51°13.604 2°56.03 -999 4.210837 32.522668 -0.74754
2005-11-24 06:24:35 51°13.605 2°56.029 -999 4.210837 32.522668 -0.74754
2005-11-24 06:24:40 51°13.606 2°56.028 -999 4.210837 32.522668 -0.74754
2005-11-24 06:24:45 51°13.606 2°56.027 -999 4.210837 32.522016 -0.74754
2005-11-24 06:24:50 51°13.607 2°56.026 -999 4.210837 32.522016 -0.74754
2005-11-24 06:24:55 51°13.608 2°56.025 -999 4.21094 32.522911 -0.74754
2005-11-24 06:25:00 51°13.608 2°56.024 -999 4.21094 32.522259 -0.74754
2005-11-24 06:25:05 51°13.609 2°56.023 -999 4.21094 32.522259 -0.74754
2005-11-24 06:25:10 51°13.61 2°56.022 -999 4.21094 32.522259 -0.74754
2005-11-24 06:25:15 51°13.611 2°56.02 -999 4.21094 32.522259 -0.74754
2005-11-24 06:25:20 51°13.612 2°56.019 -999 4.21094 32.521608 -0.74754
2005-11-24 06:25:25 51°13.613 2°56.017 -999 4.211044 32.522502 -0.74754
2005-11-24 06:25:30 51°13.614 2°56.015 -999 4.211044 32.521851 -0.74754
2005-11-24 06:25:35 51°13.615 2°56.013 -999 4.211044 32.521851 -0.74754
2005-11-24 06:25:40 51°13.617 2°56.011 -999 4.211044 32.521851 -0.74754
2005-11-24 06:25:45 51°13.618 2°56.008 -999 4.211044 32.5212 -0.74754
2005-11-24 06:25:50 51°13.619 2°56.006 -999 4.211044 32.5212 -0.74754
2005-11-24 06:25:55 51°13.621 2°56.003 -999 4.211044 32.5212 -0.74754
2005-11-24 06:26:00 51°13.622 2°56 -999 4.211148 32.522094 -0.74754
2005-11-24 06:26:05 51°13.624 2°55.997 -999 4.211148 32.522094 -0.74754
2005-11-24 06:26:10 51°13.625 2°55.994 -999 4.211148 32.522094 -0.74754
2005-11-24 06:26:15 51°13.627 2°55.991 -999 4.211148 32.521443 -0.71383
2005-11-24 06:26:20 51°13.628 2°55.988 -999 4.211148 32.521443 -0.74754
2005-11-24 06:26:25 51°13.63 2°55.985 -999 4.211148 32.520791 -0.74754
2005-11-24 06:26:30 51°13.631 2°55.981 -999 4.211148 32.520791 -0.74754
2005-11-24 06:26:35 51°13.633 2°55.977 -999 4.211148 32.520791 -0.74754
2005-11-24 06:26:40 51°13.635 2°55.973 -999 4.211148 32.52014 -0.74754
2005-11-24 06:26:45 51°13.636 2°55.969 -999 4.211251 32.521034 -0.74754
2005-11-24 06:26:50 51°13.638 2°55.964 -999 4.211251 32.521034 -0.74754
2005-11-24 06:26:55 51°13.64 2°55.959 -999 4.211251 32.521034 -0.74754
2005-11-24 06:27:00 51°13.642 2°55.953 -999 4.211251 32.520383 -0.74754
2005-11-24 06:27:05 51°13.644 2°55.947 -999 4.211251 32.520383 -0.74754
2005-11-24 06:27:10 51°13.645 2°55.942 -999 4.211251 32.521034 -0.74754
2005-11-24 06:27:15 51°13.647 2°55.935 -999 4.211355 32.521277 -0.74754
2005-11-24 06:27:20 51°13.65 2°55.928 -999 4.211355 32.521277 -0.74754
2005-11-24 06:27:25 51°13.652 2°55.921 -999 4.211355 32.521277 -0.74754
2005-11-24 06:27:30 51°13.655 2°55.913 -999 4.211355 32.520626 -0.74754
2005-11-24 06:27:35 51°13.658 2°55.905 -999 4.211355 32.520626 -0.74754
2005-11-24 06:27:40 51°13.662 2°55.896 -999 4.211355 32.520626 -0.74754
2005-11-24 06:27:45 51°13.665 2°55.887 -999 4.211355 32.520626 -0.74754
2005-11-24 06:27:50 51°13.669 2°55.877 -999 4.211459 32.520869 -0.74754
2005-11-24 06:27:55 51°13.673 2°55.867 -999 4.211355 32.519975 -0.74754
2005-11-24 06:28:00 51°13.677 2°55.857 -999 4.211459 32.52152 -0.74754
2005-11-24 06:28:05 51°13.681 2°55.847 -999 4.211459 32.52152 -0.74754
2005-11-24 06:28:10 51°13.685 2°55.837 -999 4.211459 32.520869 -0.74754
2005-11-24 06:28:15 51°13.69 2°55.827 -999 4.211459 32.520869 -0.74754
2005-11-24 06:28:20 51°13.695 2°55.816 -999 4.211459 32.520869 -0.74754
2005-11-24 06:28:25 51°13.7 2°55.806 -999 4.211459 32.520869 -0.74754
2005-11-24 06:28:30 51°13.705 2°55.796 -999 4.211459 32.520869 -0.74754
2005-11-24 06:28:35 51°13.71 2°55.785 -999 4.211459 32.520869 -0.74754
2005-11-24 06:28:40 51°13.716 2°55.775 -999 4.211562 32.521112 -0.74754
2005-11-24 06:28:45 51°13.721 2°55.765 -999 4.211562 32.520461 -0.74754
2005-11-24 06:28:50 51°13.727 2°55.756 -999 4.211562 32.520461 -0.74754
2005-11-24 06:28:55 51°13.733 2°55.746 -999 4.211562 32.520461 -0.74754
2005-11-24 06:29:00 51°13.739 2°55.738 -999 4.211562 32.521112 -0.74754
2005-11-24 06:29:05 51°13.745 2°55.729 -999 4.211562 32.521112 -0.74754
2005-11-24 06:29:10 51°13.751 2°55.721 -999 4.211562 32.520461 -0.74754
2005-11-24 06:29:15 51°13.757 2°55.712 -999 4.211562 32.520461 -0.74754
2005-11-24 06:29:20 51°13.763 2°55.704 -999 4.211562 32.520461 -0.74754
2005-11-24 06:29:25 51°13.769 2°55.697 -999 4.211562 32.51981 -0.74754
2005-11-24 06:29:30 51°13.775 2°55.689 -999 4.211666 32.520704 -0.74754
2005-11-24 06:29:35 51°13.782 2°55.682 -999 4.211666 32.520704 -0.74754
2005-11-24 06:29:40 51°13.788 2°55.674 -999 4.211666 32.520704 -0.74754
2005-11-24 06:29:45 51°13.794 2°55.665 -999 4.211666 32.520704 -0.74754
2005-11-24 06:29:50 51°13.801 2°55.658 -999 4.211666 32.520053 -0.74754
2005-11-24 06:29:55 51°13.808 2°55.65 -999 4.211666 32.518751 -0.74754
2005-11-24 06:30:00 51°13.815 2°55.642 -999 4.211666 32.519402 -0.74754
2005-11-24 06:30:05 51°13.822 2°55.635 -999 4.211666 32.519402 -0.74754
2005-11-24 06:30:10 51°13.829 2°55.628 -999 4.211666 32.519402 -0.74754
2005-11-24 06:30:15 51°13.837 2°55.621 -999 4.211666 32.519402 -0.74754
2005-11-24 06:30:20 51°13.844 2°55.614 -999 4.21177 32.520296 -0.74754
2005-11-24 06:30:25 51°13.852 2°55.607 -999 4.21177 32.519645 -0.74754
2005-11-24 06:30:30 51°13.86 2°55.602 -999 4.21177 32.519645 -0.74754
2005-11-24 06:30:35 51°13.868 2°55.597 -999 4.21177 32.519645 -0.74754
2005-11-24 06:30:40 51°13.876 2°55.592 -999 4.21177 32.519645 -0.74754
2005-11-24 06:30:45 51°13.885 2°55.586 -999 4.21177 32.519645 -0.74754
2005-11-24 06:30:50 51°13.893 2°55.581 -999 4.21177 32.518994 -0.74754
2005-11-24 06:30:55 51°13.901 2°55.575 -999 4.21177 32.518994 -0.74754
2005-11-24 06:31:00 51°13.91 2°55.57 -999 4.21177 32.518994 -0.74754
2005-11-24 06:31:05 51°13.918 2°55.564 -999 4.21177 32.518994 -0.74754
2005-11-24 06:31:10 51°13.927 2°55.558 -999 4.211873 32.519888 -0.74754
2005-11-24 06:31:16 51°13.937 2°55.551 -999 4.211873 32.519888 -0.74754
2005-11-24 06:31:20 51°13.944 2°55.547 -999 4.211873 32.519237 -0.74754
2005-11-24 06:31:25 51°13.953 2°55.541 -999 4.211873 32.518586 -0.74754
2005-11-24 06:31:30 51°13.962 2°55.536 -999 4.211873 32.518586 -0.74754
2005-11-24 06:31:35 51°13.971 2°55.53 -999 4.211873 32.518586 -0.74754
2005-11-24 06:31:40 51°13.98 2°55.524 -999 4.211873 32.518586 -0.74754
2005-11-24 06:31:45 51°13.989 2°55.518 -999 4.211873 32.518586 -0.74754
2005-11-24 06:31:50 51°13.998 2°55.512 -999 4.211873 32.518586 -0.74754
2005-11-24 06:31:56 51°14.008 2°55.506 -999 4.211977 32.518829 -0.74754
2005-11-24 06:32:00 51°14.016 2°55.501 -999 4.211977 32.518829 -0.74754
2005-11-24 06:32:05 51°14.025 2°55.495 -999 4.211977 32.518829 -0.74754
2005-11-24 06:32:10 51°14.035 2°55.489 -999 4.211977 32.518829 -0.74754
2005-11-24 06:32:15 51°14.044 2°55.483 -999 4.211977 32.518829 -0.74754
2005-11-24 06:32:20 51°14.054 2°55.476 -999 4.211977 32.518829 -0.74754
2005-11-24 06:32:25 51°14.064 2°55.469 -999 4.211977 32.518178 -0.74754
2005-11-24 06:32:30 51°14.074 2°55.463 -999 4.212081 32.518421 -0.74754
2005-11-24 06:32:35 51°14.084 2°55.457 -999 4.212081 32.518421 -0.74754
2005-11-24 06:32:40 51°14.094 2°55.45 -999 4.212081 32.518421 -0.74754
2005-11-24 06:32:45 51°14.105 2°55.443 -999 4.211977 32.518178 -0.74754
2005-11-24 06:32:50 51°14.115 2°55.436 -999 4.212081 32.519072 -0.74754
2005-11-24 06:32:56 51°14.127 2°55.426 -999 4.212081 32.518421 -0.74754
2005-11-24 06:33:00 51°14.135 2°55.42 -999 4.212081 32.518421 -0.74754
2005-11-24 06:33:05 51°14.145 2°55.412 -999 4.212081 32.518421 -0.74754
2005-11-24 06:33:10 51°14.155 2°55.404 -999 4.212081 32.518421 -0.74754
2005-11-24 06:33:15 51°14.164 2°55.395 -999 4.212081 32.518421 -0.74754
2005-11-24 06:33:20 51°14.174 2°55.385 -999 4.212184 32.519315 -0.74754
2005-11-24 06:33:24 51°14.181 2°55.377 -999 4.212184 32.518664 -0.74754
2005-11-24 06:33:30 51°14.193 2°55.365 -999 4.212184 32.518664 -0.74754
2005-11-24 06:33:35 51°14.202 2°55.354 -999 4.212184 32.518664 -0.74754
2005-11-24 06:33:40 51°14.21 2°55.343 -999 4.212184 32.518664 -0.74754
2005-11-24 06:33:45 51°14.219 2°55.332 -999 4.212184 32.518013 -0.74754
2005-11-24 06:33:50 51°14.227 2°55.321 -999 4.212184 32.517362 -0.74754
2005-11-24 06:33:55 51°14.236 2°55.309 -999 4.212184 32.518013 -0.74754
2005-11-24 06:34:00 51°14.245 2°55.296 -999 4.212184 32.517362 -0.74754
2005-11-24 06:34:05 51°14.254 2°55.282 -999 4.212184 32.517362 -0.74754
2005-11-24 06:34:10 51°14.263 2°55.269 -999 4.212184 32.517362 -0.74754
2005-11-24 06:34:15 51°14.271 2°55.254 -999 4.212288 32.517605 -0.74754
2005-11-24 06:34:20 51°14.28 2°55.239 -999 4.212288 32.517605 -0.74754
2005-11-24 06:34:25 51°14.289 2°55.223 -999 4.212288 32.518256 -0.74754
2005-11-24 06:34:30 51°14.297 2°55.206 -999 4.212288 32.518256 -0.74754
2005-11-24 06:34:35 51°14.305 2°55.19 -999 4.212288 32.518256 -0.74754
2005-11-24 06:34:40 51°14.312 2°55.172 -999 4.212288 32.517605 -0.74754
2005-11-24 06:34:45 51°14.32 2°55.155 -999 4.212288 32.517605 -0.74754
2005-11-24 06:34:50 51°14.327 2°55.137 -999 4.212288 32.517605 -0.74754
2005-11-24 06:34:55 51°14.335 2°55.119 -999 4.212392 32.517848 -0.74754
2005-11-24 06:35:00 51°14.342 2°55.101 -999 4.212288 32.516304 -0.74754
2005-11-24 06:35:05 51°14.349 2°55.084 -999 4.212288 32.516304 -0.74754
2005-11-24 06:35:10 51°14.357 2°55.066 -999 4.212392 32.517848 -0.71383
2005-11-24 06:35:16 51°14.367 2°55.044 -999 4.212392 32.517198 -0.74754
2005-11-24 06:35:20 51°14.373 2°55.03 -999 4.212392 32.517198 -0.74754
2005-11-24 06:35:25 51°14.382 2°55.012 -999 4.212392 32.517198 -0.74754
2005-11-24 06:35:30 51°14.391 2°54.994 -999 4.212495 32.518091 -0.74754
2005-11-24 06:35:35 51°14.401 2°54.976 -999 4.212495 32.518091 -0.74754
2005-11-24 06:35:40 51°14.411 2°54.958 -999 4.212392 32.516547 -0.74754
2005-11-24 06:35:45 51°14.422 2°54.942 -999 4.212495 32.517441 -0.74754
2005-11-24 06:35:50 51°14.433 2°54.926 -999 4.212495 32.517441 -0.74754
2005-11-24 06:35:55 51°14.445 2°54.909 -999 4.212495 32.518091 -0.74754
2005-11-24 06:36:00 51°14.456 2°54.893 -999 4.212495 32.518742 -0.74754
2005-11-24 06:36:04 51°14.465 2°54.879 -999 4.212495 32.518742 -0.74754
2005-11-24 06:36:10 51°14.478 2°54.857 -999 4.212495 32.518742 -0.74754
2005-11-24 06:36:15 51°14.489 2°54.838 -999 4.212495 32.518742 -0.74754
2005-11-24 06:36:20 51°14.499 2°54.818 -999 4.212495 32.518091 -0.74754
2005-11-24 06:36:25 51°14.509 2°54.797 -999 4.212599 32.518335 -0.74754
2005-11-24 06:36:30 51°14.519 2°54.776 -999 4.212599 32.518335 -0.74754
2005-11-24 06:36:35 51°14.529 2°54.754 -999 4.212599 32.518335 -0.74754
2005-11-24 06:36:40 51°14.538 2°54.732 -999 4.212703 32.518578 -0.74754
2005-11-24 06:36:45 51°14.548 2°54.709 -999 4.212703 32.517927 -0.74754
2005-11-24 06:36:50 51°14.557 2°54.687 -999 4.212599 32.517033 -0.74754
2005-11-24 06:36:55 51°14.567 2°54.665 -999 4.212599 32.517033 -0.74754
2005-11-24 06:37:00 51°14.576 2°54.642 -999 4.212703 32.517927 -0.74754
2005-11-24 06:37:05 51°14.586 2°54.619 -999 4.212703 32.517927 -0.74754
2005-11-24 06:37:10 51°14.596 2°54.597 -999 4.212703 32.517927 -0.74754
2005-11-24 06:37:15 51°14.606 2°54.574 -999 4.212703 32.517927 -0.74754
2005-11-24 06:37:20 51°14.615 2°54.551 -999 4.212703 32.517927 -0.74754
2005-11-24 06:37:25 51°14.625 2°54.528 -999 4.212703 32.518578 -0.74754
2005-11-24 06:37:30 51°14.634 2°54.505 -999 4.212703 32.517927 -0.74754
2005-11-24 06:37:35 51°14.642 2°54.481 -999 4.212703 32.517927 -0.74754
2005-11-24 06:37:40 51°14.651 2°54.458 -999 4.212703 32.517927 -0.74754
2005-11-24 06:37:45 51°14.66 2°54.434 -999 4.212703 32.517276 -0.74754
2005-11-24 06:37:50 51°14.67 2°54.411 -999 4.212807 32.517519 -0.74754
2005-11-24 06:37:55 51°14.679 2°54.387 -999 4.212807 32.517519 -0.74754
2005-11-24 06:38:00 51°14.688 2°54.364 -999 4.212807 32.517519 -0.74754
2005-11-24 06:38:05 51°14.697 2°54.341 -999 4.212807 32.517519 -0.74754
2005-11-24 06:38:10 51°14.706 2°54.317 -999 4.212807 32.517519 -0.74754
2005-11-24 06:38:15 51°14.715 2°54.293 -999 4.212807 32.517519 -0.74754
2005-11-24 06:38:20 51°14.723 2°54.269 -999 4.212807 32.517519 -0.74754
2005-11-24 06:38:25 51°14.732 2°54.246 -999 4.212807 32.516868 -0.74754
2005-11-24 06:38:30 51°14.74 2°54.222 -999 4.21291 32.517111 -0.74754
2005-11-24 06:38:35 51°14.748 2°54.198 -999 4.21291 32.517111 -0.74754
2005-11-24 06:38:40 51°14.757 2°54.174 -999 4.21291 32.517111 -0.74754
2005-11-24 06:38:45 51°14.765 2°54.15 -999 4.21291 32.517111 -0.74754
2005-11-24 06:38:50 51°14.774 2°54.126 -999 4.212807 32.516218 -0.74754
2005-11-24 06:38:55 51°14.782 2°54.102 -999 4.21291 32.517111 -0.74754
2005-11-24 06:39:00 51°14.791 2°54.079 -999 4.21291 32.517762 -0.74754
2005-11-24 06:39:04 51°14.798 2°54.059 -999 4.21291 32.517762 -0.74754
2005-11-24 06:39:10 51°14.808 2°54.031 -999 4.21291 32.517762 -0.74754
2005-11-24 06:39:15 51°14.816 2°54.006 -999 4.21291 32.517762 -0.74754
2005-11-24 06:39:20 51°14.824 2°53.982 -999 4.21291 32.516461 -0.74754
2005-11-24 06:39:25 51°14.832 2°53.958 -999 4.21291 32.516461 -0.74754
2005-11-24 06:39:30 51°14.84 2°53.933 -999 4.213014 32.516704 -0.74754
2005-11-24 06:39:35 51°14.849 2°53.909 -999 4.213014 32.516704 -0.74754
2005-11-24 06:39:40 51°14.857 2°53.885 -999 4.21291 32.51581 -0.74754
2005-11-24 06:39:45 51°14.866 2°53.86 -999 4.213014 32.516704 -0.74754
2005-11-24 06:39:50 51°14.874 2°53.836 -999 4.21291 32.515159 -0.74754
2005-11-24 06:39:55 51°14.883 2°53.811 -999 4.21291 32.51581 -0.74754
2005-11-24 06:40:00 51°14.891 2°53.787 -999 4.21291 32.51581 -0.74754
2005-11-24 06:40:05 51°14.9 2°53.763 -999 4.21291 32.51581 -0.74754
2005-11-24 06:40:10 51°14.908 2°53.738 -999 4.213014 32.516704 -0.74754
2005-11-24 06:40:15 51°14.917 2°53.714 -999 4.21291 32.51581 -0.74754
2005-11-24 06:40:20 51°14.925 2°53.69 -999 4.213014 32.516053 -0.74754
2005-11-24 06:40:25 51°14.934 2°53.665 -999 4.213014 32.516053 -0.74754
2005-11-24 06:40:30 51°14.943 2°53.641 -999 4.213014 32.515403 -0.74754
2005-11-24 06:40:35 51°14.951 2°53.617 -999 4.213014 32.515403 -0.74754
2005-11-24 06:40:40 51°14.96 2°53.593 -999 4.213014 32.516053 -0.74754
2005-11-24 06:40:45 51°14.967 2°53.568 -999 4.213014 32.516704 -0.74754
2005-11-24 06:40:50 51°14.975 2°53.543 -999 4.213014 32.516704 -0.74754
2005-11-24 06:40:55 51°14.983 2°53.518 -999 4.213014 32.516053 -0.74754
2005-11-24 06:41:00 51°14.99 2°53.493 -999 4.213014 32.516053 -0.74754
2005-11-24 06:41:05 51°14.998 2°53.468 -999 4.213014 32.516053 -0.74754
2005-11-24 06:41:10 51°15.005 2°53.443 -999 4.213014 32.515403 -0.74754
2005-11-24 06:41:15 51°15.013 2°53.418 -999 4.213014 32.514752 -0.74754
2005-11-24 06:41:20 51°15.02 2°53.393 -999 4.213014 32.514752 -0.74754
2005-11-24 06:41:25 51°15.028 2°53.368 -999 4.213014 32.514752 -0.74754
2005-11-24 06:41:30 51°15.035 2°53.343 -999 4.213014 32.515403 -0.74754
2005-11-24 06:41:35 51°15.043 2°53.318 -999 4.213014 32.515403 -0.74754
2005-11-24 06:41:40 51°15.051 2°53.292 -999 4.213118 32.516296 -0.74754
2005-11-24 06:41:45 51°15.058 2°53.267 -999 4.213014 32.514752 -0.74754
2005-11-24 06:41:50 51°15.065 2°53.242 -999 4.213014 32.515403 -0.74754
2005-11-24 06:41:55 51°15.073 2°53.217 -999 4.213118 32.516296 -0.74754
2005-11-24 06:42:00 51°15.08 2°53.193 -999 4.213014 32.515403 -0.74754
2005-11-24 06:42:05 51°15.087 2°53.167 -999 4.213014 32.515403 -0.74754
2005-11-24 06:42:10 51°15.095 2°53.143 -999 4.213118 32.515646 -0.74754
2005-11-24 06:42:16 51°15.104 2°53.113 -999 4.213118 32.515646 -0.74754
2005-11-24 06:42:20 51°15.11 2°53.093 -999 4.213118 32.515646 -0.74754
2005-11-24 06:42:25 51°15.117 2°53.068 -999 4.213118 32.515646 -0.74754
2005-11-24 06:42:30 51°15.125 2°53.043 -999 4.213118 32.515646 -0.74754
2005-11-24 06:42:35 51°15.133 2°53.019 -999 4.213118 32.515646 -0.74754
2005-11-24 06:42:40 51°15.14 2°52.994 -999 4.213118 32.514995 -0.74754
2005-11-24 06:42:45 51°15.148 2°52.969 -999 4.213014 32.514752 -0.74754
2005-11-24 06:42:50 51°15.155 2°52.944 -999 4.213118 32.515646 -0.74754
2005-11-24 06:42:55 51°15.162 2°52.919 -999 4.213014 32.514752 -0.74754
2005-11-24 06:43:00 51°15.169 2°52.894 -999 4.213118 32.515646 -0.74754
2005-11-24 06:43:04 51°15.175 2°52.874 -999 4.213118 32.515646 -0.74754
2005-11-24 06:43:10 51°15.182 2°52.843 -999 4.213118 32.515646 -0.74754
2005-11-24 06:43:15 51°15.189 2°52.818 -999 4.213118 32.515646 -0.74754
2005-11-24 06:43:20 51°15.195 2°52.792 -999 4.213014 32.514101 -0.74754
2005-11-24 06:43:25 51°15.202 2°52.767 -999 4.213014 32.514101 -0.74754
2005-11-24 06:43:30 51°15.209 2°52.741 -999 4.213118 32.514995 -0.74754
2005-11-24 06:43:35 51°15.215 2°52.716 -999 4.213118 32.514995 -0.74754
2005-11-24 06:43:40 51°15.222 2°52.691 -999 4.213118 32.515646 -0.74754
2005-11-24 06:43:45 51°15.228 2°52.665 -999 4.213118 32.515646 -0.74754
2005-11-24 06:43:50 51°15.235 2°52.64 -999 4.213014 32.514752 -0.71383
2005-11-24 06:43:55 51°15.242 2°52.614 -999 4.213118 32.514995 -0.74754
2005-11-24 06:44:00 51°15.248 2°52.589 -999 4.213014 32.514752 -0.74754
2005-11-24 06:44:05 51°15.255 2°52.563 -999 4.213014 32.514752 -0.74754
2005-11-24 06:44:10 51°15.261 2°52.538 -999 4.213118 32.515646 -0.74754
2005-11-24 06:44:15 51°15.268 2°52.512 -999 4.213014 32.514101 -0.74754
2005-11-24 06:44:20 51°15.274 2°52.487 -999 4.213118 32.514995 -0.74754
2005-11-24 06:44:25 51°15.281 2°52.462 -999 4.213118 32.514995 -0.74754
2005-11-24 06:44:30 51°15.288 2°52.436 -999 4.213118 32.514995 -0.74754
2005-11-24 06:44:35 51°15.294 2°52.411 -999 4.213118 32.514995 -0.74754
2005-11-24 06:44:40 51°15.301 2°52.386 -999 4.213118 32.514995 -0.74754
2005-11-24 06:44:44 51°15.306 2°52.365 -999 4.213014 32.514101 -0.74754
2005-11-24 06:44:50 51°15.314 2°52.335 -999 4.213118 32.515646 -0.74754
2005-11-24 06:44:55 51°15.321 2°52.31 -999 4.213118 32.514995 -0.74754
2005-11-24 06:45:00 51°15.327 2°52.284 -999 4.213014 32.514101 -0.74754
2005-11-24 06:45:05 51°15.334 2°52.259 -999 4.213014 32.514101 -0.74754
2005-11-24 06:45:10 51°15.34 2°52.233 -999 4.213118 32.514995 -0.74754
2005-11-24 06:45:15 51°15.347 2°52.208 -999 4.213118 32.514344 -0.74754
2005-11-24 06:45:20 51°15.354 2°52.183 -999 4.213014 32.514101 -0.74754
2005-11-24 06:45:25 51°15.36 2°52.157 -999 4.213014 32.514101 -0.74754
2005-11-24 06:45:30 51°15.367 2°52.132 -999 4.213014 32.514101 -0.74754
2005-11-24 06:45:35 51°15.374 2°52.107 -999 4.213014 32.514101 -0.74754
2005-11-24 06:45:40 51°15.381 2°52.082 -999 4.213014 32.514101 -0.74754
2005-11-24 06:45:45 51°15.388 2°52.056 -999 4.213014 32.514101 -0.74754
2005-11-24 06:45:50 51°15.395 2°52.031 -999 4.213118 32.514995 -0.74754
2005-11-24 06:45:55 51°15.401 2°52.006 -999 4.213014 32.514101 -0.74754
2005-11-24 06:46:00 51°15.408 2°51.98 -999 4.21291 32.513208 -0.74754
2005-11-24 06:46:05 51°15.415 2°51.955 -999 4.21291 32.513208 -0.74754
2005-11-24 06:46:10 51°15.422 2°51.93 -999 4.213014 32.513451 -0.74754
2005-11-24 06:46:15 51°15.429 2°51.905 -999 4.21291 32.512557 -0.74754
2005-11-24 06:46:20 51°15.436 2°51.879 -999 4.213014 32.513451 -0.74754
2005-11-24 06:46:25 51°15.442 2°51.854 -999 4.21291 32.513208 -0.74754
2005-11-24 06:46:30 51°15.449 2°51.829 -999 4.213014 32.513451 -0.74754
2005-11-24 06:46:35 51°15.456 2°51.803 -999 4.213014 32.513451 -0.74754
2005-11-24 06:46:40 51°15.463 2°51.778 -999 4.213014 32.513451 -0.74754
2005-11-24 06:46:45 51°15.47 2°51.753 -999 4.213014 32.513451 -0.74754
2005-11-24 06:46:50 51°15.476 2°51.728 -999 4.213014 32.513451 -0.74754
2005-11-24 06:46:55 51°15.482 2°51.702 -999 4.213014 32.514101 -0.74754
2005-11-24 06:47:00 51°15.488 2°51.676 -999 4.213014 32.514101 -0.74754
2005-11-24 06:47:05 51°15.493 2°51.65 -999 4.213014 32.514101 -0.74754
2005-11-24 06:47:10 51°15.498 2°51.624 -999 4.213014 32.514101 -0.74754
2005-11-24 06:47:15 51°15.503 2°51.598 -999 4.21291 32.512557 -0.74754
2005-11-24 06:47:20 51°15.507 2°51.572 -999 4.21291 32.511907 -0.74754
2005-11-24 06:47:25 51°15.512 2°51.546 -999 4.21291 32.511907 -0.74754
2005-11-24 06:47:30 51°15.516 2°51.519 -999 4.21291 32.511907 -0.74754
2005-11-24 06:47:35 51°15.521 2°51.493 -999 4.21291 32.511907 -0.74754
2005-11-24 06:47:40 51°15.525 2°51.467 -999 4.21291 32.511907 -0.74754
2005-11-24 06:47:45 51°15.53 2°51.441 -999 4.213014 32.5128 -0.74754
2005-11-24 06:47:50 51°15.535 2°51.415 -999 4.212806 32.511013 -0.74754
2005-11-24 06:47:55 51°15.54 2°51.388 -999 4.21291 32.511907 -0.74754
2005-11-24 06:48:00 51°15.544 2°51.362 -999 4.21291 32.511907 -0.74754
2005-11-24 06:48:04 51°15.548 2°51.341 -999 4.21291 32.511907 -0.74754
2005-11-24 06:48:10 51°15.554 2°51.31 -999 4.21291 32.511907 -0.74754
2005-11-24 06:48:15 51°15.558 2°51.284 -999 4.21291 32.511907 -0.74754
2005-11-24 06:48:20 51°15.563 2°51.258 -999 4.212806 32.511013 -0.74754
2005-11-24 06:48:25 51°15.567 2°51.231 -999 4.21291 32.512557 -0.74754
2005-11-24 06:48:30 51°15.571 2°51.205 -999 4.212806 32.511013 -0.74754
2005-11-24 06:48:35 51°15.574 2°51.179 -999 4.212806 32.511013 -0.74754
2005-11-24 06:48:40 51°15.578 2°51.152 -999 4.212806 32.511664 -0.74754
2005-11-24 06:48:45 51°15.581 2°51.126 -999 4.21291 32.512557 -0.71383
2005-11-24 06:48:50 51°15.583 2°51.099 -999 4.212806 32.511664 -0.74754
2005-11-24 06:48:55 51°15.585 2°51.072 -999 4.212806 32.511013 -0.74754
2005-11-24 06:49:00 51°15.587 2°51.045 -999 4.21291 32.511907 -0.74754
2005-11-24 06:49:05 51°15.589 2°51.019 -999 4.21291 32.511907 -0.74754
2005-11-24 06:49:10 51°15.59 2°50.992 -999 4.21291 32.511256 -0.74754
2005-11-24 06:49:15 51°15.592 2°50.965 -999 4.212806 32.509712 -0.74754
2005-11-24 06:49:20 51°15.594 2°50.939 -999 4.212806 32.510363 -0.71383
2005-11-24 06:49:25 51°15.594 2°50.912 -999 4.212806 32.511013 -0.74754
2005-11-24 06:49:30 51°15.595 2°50.885 -999 4.212806 32.511013 -0.74754
2005-11-24 06:49:35 51°15.596 2°50.858 -999 4.212806 32.511013 -0.74754
2005-11-24 06:49:40 51°15.596 2°50.831 -999 4.212703 32.510119 -0.74754
2005-11-24 06:49:45 51°15.596 2°50.805 -999 4.212806 32.510363 -0.74754
2005-11-24 06:49:50 51°15.596 2°50.778 -999 4.212806 32.510363 -0.74754
2005-11-24 06:49:55 51°15.597 2°50.751 -999 4.212703 32.509469 -0.74754
2005-11-24 06:50:00 51°15.597 2°50.724 -999 4.212806 32.510363 -0.74754
2005-11-24 06:50:05 51°15.597 2°50.697 -999 4.212806 32.510363 -0.74754
2005-11-24 06:50:10 51°15.598 2°50.671 -999 4.212703 32.509469 -0.74754
2005-11-24 06:50:15 51°15.598 2°50.644 -999 4.212806 32.510363 -0.74754
2005-11-24 06:50:20 51°15.598 2°50.617 -999 4.212703 32.509469 -0.74754
2005-11-24 06:50:25 51°15.598 2°50.59 -999 4.212703 32.510119 -0.74754
2005-11-24 06:50:30 51°15.598 2°50.563 -999 4.212703 32.510119 -0.74754
2005-11-24 06:50:35 51°15.597 2°50.537 -999 4.212703 32.510119 -0.74754
2005-11-24 06:50:40 51°15.597 2°50.51 -999 4.212703 32.510119 -0.74754
2005-11-24 06:50:45 51°15.595 2°50.483 -999 4.212703 32.509469 -0.74754
2005-11-24 06:50:50 51°15.594 2°50.457 -999 4.212703 32.509469 -0.74754
2005-11-24 06:50:55 51°15.592 2°50.43 -999 4.212703 32.508819 -0.74754
2005-11-24 06:51:00 51°15.591 2°50.403 -999 4.212703 32.509469 -0.74754
2005-11-24 06:51:04 51°15.59 2°50.382 -999 4.212703 32.509469 -0.74754
2005-11-24 06:51:10 51°15.588 2°50.35 -999 4.212599 32.507925 -0.74754
2005-11-24 06:51:16 51°15.587 2°50.318 -999 4.212703 32.508819 -0.74754
2005-11-24 06:51:20 51°15.586 2°50.297 -999 4.212599 32.508575 -0.74754
2005-11-24 06:51:25 51°15.585 2°50.27 -999 4.212599 32.508575 -0.74754
2005-11-24 06:51:30 51°15.584 2°50.243 -999 4.212599 32.508575 -0.74754
2005-11-24 06:51:35 51°15.582 2°50.216 -999 4.212599 32.508575 -0.74754
2005-11-24 06:51:40 51°15.581 2°50.19 -999 4.212599 32.508575 -0.74754
2005-11-24 06:51:45 51°15.58 2°50.163 -999 4.212599 32.508575 -0.74754
2005-11-24 06:51:50 51°15.579 2°50.136 -999 4.212495 32.507031 -0.74754
2005-11-24 06:51:55 51°15.578 2°50.109 -999 4.212495 32.507682 -0.74754
2005-11-24 06:52:00 51°15.577 2°50.083 -999 4.212495 32.507682 -0.74754
2005-11-24 06:52:05 51°15.576 2°50.056 -999 4.212495 32.507682 -0.74754
2005-11-24 06:52:10 51°15.574 2°50.03 -999 4.212599 32.508575 -0.74754
2005-11-24 06:52:15 51°15.574 2°50.003 -999 4.212495 32.507682 -0.74754
2005-11-24 06:52:20 51°15.573 2°49.976 -999 4.212495 32.507682 -0.74754
2005-11-24 06:52:25 51°15.572 2°49.95 -999 4.212392 32.507439 -0.74754
2005-11-24 06:52:30 51°15.571 2°49.923 -999 4.212495 32.507682 -0.74754
2005-11-24 06:52:35 51°15.57 2°49.896 -999 4.212495 32.507682 -0.74754
2005-11-24 06:52:40 51°15.569 2°49.87 -999 4.212392 32.506788 -0.74754
2005-11-24 06:52:45 51°15.567 2°49.843 -999 4.212495 32.507031 -0.74754
2005-11-24 06:52:50 51°15.567 2°49.817 -999 4.212392 32.506788 -0.74754
2005-11-24 06:52:55 51°15.565 2°49.79 -999 4.212495 32.507031 -0.74754
2005-11-24 06:53:00 51°15.564 2°49.763 -999 4.212288 32.505895 -0.74754
2005-11-24 06:53:05 51°15.563 2°49.737 -999 4.212288 32.505895 -0.74754
2005-11-24 06:53:10 51°15.562 2°49.71 -999 4.212392 32.506788 -0.74754
2005-11-24 06:53:16 51°15.561 2°49.679 -999 4.212392 32.506788 -0.74754
2005-11-24 06:53:20 51°15.56 2°49.657 -999 4.212392 32.506788 -0.74754
2005-11-24 06:53:25 51°15.559 2°49.631 -999 4.212392 32.506788 -0.74754
2005-11-24 06:53:30 51°15.558 2°49.604 -999 4.212288 32.505895 -0.74754
2005-11-24 06:53:35 51°15.557 2°49.578 -999 4.212288 32.505895 -0.74754
2005-11-24 06:53:40 51°15.556 2°49.551 -999 4.212288 32.505895 -0.74754
2005-11-24 06:53:45 51°15.555 2°49.525 -999 4.212288 32.505895 -0.74754
2005-11-24 06:53:50 51°15.554 2°49.498 -999 4.212392 32.506138 -0.74754
2005-11-24 06:53:55 51°15.553 2°49.472 -999 4.212288 32.505895 -0.74754
2005-11-24 06:54:00 51°15.552 2°49.445 -999 4.212288 32.505895 -0.74754
2005-11-24 06:54:04 51°15.551 2°49.424 -999 4.212288 32.505895 -0.74754
2005-11-24 06:54:10 51°15.55 2°49.392 -999 4.212288 32.505895 -0.74754
2005-11-24 06:54:15 51°15.549 2°49.365 -999 4.212288 32.505895 -0.74754
2005-11-24 06:54:20 51°15.548 2°49.339 -999 4.212288 32.505895 -0.74754
2005-11-24 06:54:25 51°15.547 2°49.312 -999 4.212288 32.505895 -0.74754
2005-11-24 06:54:30 51°15.546 2°49.286 -999 4.212184 32.505651 -0.74754
2005-11-24 06:54:35 51°15.545 2°49.259 -999 4.212184 32.505651 -0.74754
2005-11-24 06:54:40 51°15.544 2°49.233 -999 4.212288 32.505895 -0.74754
2005-11-24 06:54:45 51°15.543 2°49.206 -999 4.212184 32.505001 -0.74754
2005-11-24 06:54:50 51°15.542 2°49.18 -999 4.212288 32.505895 -0.74754
2005-11-24 06:54:55 51°15.541 2°49.153 -999 4.212184 32.505651 -0.74754
2005-11-24 06:55:00 51°15.54 2°49.126 -999 4.212184 32.505651 -0.74754
2005-11-24 06:55:05 51°15.539 2°49.1 -999 4.212184 32.505651 -0.74754
2005-11-24 06:55:10 51°15.538 2°49.073 -999 4.21208 32.504758 -0.74754
2005-11-24 06:55:15 51°15.537 2°49.046 -999 4.21208 32.504758 -0.74754
2005-11-24 06:55:20 51°15.536 2°49.02 -999 4.21208 32.504758 -0.74754
2005-11-24 06:55:25 51°15.536 2°48.993 -999 4.21208 32.504758 -0.74754
2005-11-24 06:55:30 51°15.535 2°48.967 -999 4.21208 32.504758 -0.74754
2005-11-24 06:55:35 51°15.534 2°48.94 -999 4.21208 32.504758 -0.74754
2005-11-24 06:55:40 51°15.533 2°48.913 -999 4.21208 32.504758 -0.74754
2005-11-24 06:55:44 51°15.532 2°48.892 -999 4.21208 32.505408 -0.74754
2005-11-24 06:55:50 51°15.531 2°48.86 -999 4.211977 32.504515 -0.74754
2005-11-24 06:55:55 51°15.53 2°48.834 -999 4.21208 32.505408 -0.74754
2005-11-24 06:56:00 51°15.529 2°48.807 -999 4.211977 32.504515 -0.74754
2005-11-24 06:56:04 51°15.528 2°48.786 -999 4.211977 32.504515 -0.74754
2005-11-24 06:56:10 51°15.528 2°48.754 -999 4.211977 32.504515 -0.74754
2005-11-24 06:56:15 51°15.527 2°48.727 -999 4.211977 32.504515 -0.74754
2005-11-24 06:56:20 51°15.526 2°48.701 -999 4.211873 32.504271 -0.74754
2005-11-24 06:56:25 51°15.525 2°48.674 -999 4.211873 32.503621 -0.74754
2005-11-24 06:56:30 51°15.524 2°48.648 -999 4.211873 32.504271 -0.74754
2005-11-24 06:56:35 51°15.523 2°48.621 -999 4.211873 32.504271 -0.74754
2005-11-24 06:56:40 51°15.522 2°48.594 -999 4.211873 32.504271 -0.74754
2005-11-24 06:56:44 51°15.522 2°48.573 -999 4.211873 32.504271 -0.74754
2005-11-24 06:56:50 51°15.521 2°48.541 -999 4.211769 32.503378 -0.74754
2005-11-24 06:56:55 51°15.52 2°48.515 -999 4.211873 32.504922 -0.74754
2005-11-24 06:57:00 51°15.519 2°48.488 -999 4.211769 32.504028 -0.74754
2005-11-24 06:57:05 51°15.518 2°48.461 -999 4.211769 32.504028 -0.74754
2005-11-24 06:57:10 51°15.517 2°48.435 -999 4.211666 32.503134 -0.74754
2005-11-24 06:57:15 51°15.516 2°48.408 -999 4.211666 32.503134 -0.74754
2005-11-24 06:57:20 51°15.515 2°48.381 -999 4.211769 32.504028 -0.74754
2005-11-24 06:57:25 51°15.514 2°48.355 -999 4.211666 32.503785 -0.74754
2005-11-24 06:57:30 51°15.513 2°48.328 -999 4.211666 32.503134 -0.74754
2005-11-24 06:57:35 51°15.512 2°48.301 -999 4.211666 32.503134 -0.74754
2005-11-24 06:57:40 51°15.511 2°48.274 -999 4.211666 32.503785 -0.74754
2005-11-24 06:57:44 51°15.51 2°48.253 -999 4.211562 32.502891 -0.74754
2005-11-24 06:57:50 51°15.509 2°48.221 -999 4.211562 32.503541 -0.74754
2005-11-24 06:57:55 51°15.508 2°48.194 -999 4.211562 32.503541 -0.74754
2005-11-24 06:58:00 51°15.507 2°48.168 -999 4.211562 32.503541 -0.74754
2005-11-24 06:58:05 51°15.506 2°48.141 -999 4.211562 32.503541 -0.74754
2005-11-24 06:58:10 51°15.505 2°48.114 -999 4.211562 32.503541 -0.74754
2005-11-24 06:58:15 51°15.504 2°48.087 -999 4.211458 32.502648 -0.74754
2005-11-24 06:58:20 51°15.503 2°48.06 -999 4.211458 32.502648 -0.74754
2005-11-24 06:58:25 51°15.502 2°48.033 -999 4.211458 32.503298 -0.74754
2005-11-24 06:58:30 51°15.501 2°48.007 -999 4.211355 32.502404 -0.74754
2005-11-24 06:58:35 51°15.501 2°47.98 -999 4.211355 32.502404 -0.74754
2005-11-24 06:58:40 51°15.5 2°47.953 -999 4.211458 32.503298 -0.74754
2005-11-24 06:58:44 51°15.499 2°47.932 -999 4.211355 32.503055 -0.74754
2005-11-24 06:58:50 51°15.498 2°47.9 -999 4.211251 32.501511 -0.74754
2005-11-24 06:58:55 51°15.497 2°47.873 -999 4.211251 32.502161 -0.74754
2005-11-24 06:59:00 51°15.496 2°47.846 -999 4.211251 32.502161 -0.71383
2005-11-24 06:59:05 51°15.495 2°47.819 -999 4.211251 32.502161 -0.71383
2005-11-24 06:59:10 51°15.494 2°47.793 -999 4.211251 32.502161 -0.74754
2005-11-24 06:59:15 51°15.494 2°47.766 -999 4.211147 32.501918 -0.74754
2005-11-24 06:59:20 51°15.493 2°47.739 -999 4.211147 32.501918 -0.74754
2005-11-24 06:59:25 51°15.492 2°47.712 -999 4.211147 32.501918 -0.74754
2005-11-24 06:59:30 51°15.491 2°47.686 -999 4.211044 32.501024 -0.74754
2005-11-24 06:59:35 51°15.49 2°47.659 -999 4.211044 32.501024 -0.74754
2005-11-24 06:59:40 51°15.49 2°47.632 -999 4.211044 32.501024 -0.74754
2005-11-24 06:59:45 51°15.489 2°47.606 -999 4.211044 32.501675 -0.74754
2005-11-24 06:59:50 51°15.488 2°47.579 -999 4.21094 32.500781 -0.74754
2005-11-24 06:59:55 51°15.487 2°47.552 -999 4.210836 32.499887 -0.74754
2005-11-24 07:00:00 51°15.486 2°47.526 -999 4.21094 32.500781 -0.74754
2005-11-24 07:00:05 51°15.486 2°47.499 -999 4.21094 32.500781 -0.74754
2005-11-24 07:00:10 51°15.485 2°47.472 -999 4.210836 32.500538 -0.74754
2005-11-24 07:00:15 51°15.484 2°47.446 -999 4.210836 32.500538 -0.74754
2005-11-24 07:00:20 51°15.483 2°47.419 -999 4.210732 32.499644 -0.74754
2005-11-24 07:00:25 51°15.482 2°47.393 -999 4.210732 32.499644 -0.74754
2005-11-24 07:00:30 51°15.481 2°47.366 -999 4.210732 32.499644 -0.74754
2005-11-24 07:00:35 51°15.48 2°47.34 -999 4.210732 32.499644 -0.74754
2005-11-24 07:00:40 51°15.479 2°47.313 -999 4.210732 32.500294 -0.74754
2005-11-24 07:00:44 51°15.479 2°47.292 -999 4.210629 32.4994 -0.74754
2005-11-24 07:00:50 51°15.478 2°47.26 -999 4.210525 32.498507 -0.74754
2005-11-24 07:00:55 51°15.477 2°47.234 -999 4.210525 32.499157 -0.74754
2005-11-24 07:01:00 51°15.477 2°47.207 -999 4.210629 32.500051 -0.74754
2005-11-24 07:01:05 51°15.476 2°47.181 -999 4.210629 32.500051 -0.74754
2005-11-24 07:01:10 51°15.475 2°47.154 -999 4.210525 32.499157 -0.74754
2005-11-24 07:01:15 51°15.474 2°47.128 -999 4.210421 32.498914 -0.74754
2005-11-24 07:01:20 51°15.473 2°47.101 -999 4.210421 32.498263 -0.74754
2005-11-24 07:01:25 51°15.472 2°47.075 -999 4.210318 32.49802 -0.74754
2005-11-24 07:01:30 51°15.471 2°47.049 -999 4.210318 32.49802 -0.71383
2005-11-24 07:01:35 51°15.469 2°47.022 -999 4.210318 32.49802 -0.71383
2005-11-24 07:01:40 51°15.468 2°46.995 -999 4.210318 32.49802 -0.74754
2005-11-24 07:01:44 51°15.468 2°46.974 -999 4.210214 32.497126 -0.74754
2005-11-24 07:01:50 51°15.467 2°46.943 -999 4.21011 32.496232 -0.74754
2005-11-24 07:01:55 51°15.466 2°46.916 -999 4.21011 32.496883 -0.74754
2005-11-24 07:02:00 51°15.465 2°46.89 -999 4.21011 32.497533 -0.74754
2005-11-24 07:02:05 51°15.465 2°46.864 -999 4.21011 32.497533 -0.74754
2005-11-24 07:02:10 51°15.464 2°46.838 -999 4.210007 32.496639 -0.74754
2005-11-24 07:02:15 51°15.463 2°46.811 -999 4.210007 32.496639 -0.74754
2005-11-24 07:02:20 51°15.461 2°46.785 -999 4.210007 32.49729 -0.74754
2005-11-24 07:02:25 51°15.46 2°46.759 -999 4.210007 32.49729 -0.74754
2005-11-24 07:02:30 51°15.458 2°46.733 -999 4.209903 32.496396 -0.74754
2005-11-24 07:02:35 51°15.456 2°46.707 -999 4.209903 32.496396 -0.74754
2005-11-24 07:02:40 51°15.454 2°46.681 -999 4.209903 32.496396 -0.74754
2005-11-24 07:02:45 51°15.453 2°46.655 -999 4.209903 32.496396 -0.74754
2005-11-24 07:02:50 51°15.451 2°46.629 -999 4.209799 32.495502 -0.74754
2005-11-24 07:02:55 51°15.449 2°46.602 -999 4.209799 32.495502 -0.74754
2005-11-24 07:03:00 51°15.447 2°46.577 -999 4.209695 32.495259 -0.74754
2005-11-24 07:03:05 51°15.445 2°46.55 -999 4.209695 32.495259 -0.74754
2005-11-24 07:03:10 51°15.444 2°46.524 -999 4.209695 32.495259 -0.74754
2005-11-24 07:03:15 51°15.442 2°46.499 -999 4.209592 32.494365 -0.74754
2005-11-24 07:03:20 51°15.441 2°46.472 -999 4.209592 32.495015 -0.74754
2005-11-24 07:03:25 51°15.439 2°46.446 -999 4.209488 32.494122 -0.74754
2005-11-24 07:03:30 51°15.437 2°46.42 -999 4.209488 32.494772 -0.74754
2005-11-24 07:03:35 51°15.435 2°46.394 -999 4.209488 32.494772 -0.74754
2005-11-24 07:03:40 51°15.434 2°46.368 -999 4.209488 32.494122 -0.74754
2005-11-24 07:03:45 51°15.432 2°46.342 -999 4.209384 32.493878 -0.74754
2005-11-24 07:03:50 51°15.43 2°46.316 -999 4.209384 32.493878 -0.74754
2005-11-24 07:03:55 51°15.429 2°46.289 -999 4.209281 32.493635 -0.74754
2005-11-24 07:04:00 51°15.427 2°46.263 -999 4.209281 32.493635 -0.74754
2005-11-24 07:04:05 51°15.425 2°46.237 -999 4.209281 32.493635 -0.74754
2005-11-24 07:04:10 51°15.423 2°46.211 -999 4.209177 32.492741 -0.74754
2005-11-24 07:04:15 51°15.422 2°46.185 -999 4.209177 32.493391 -0.74754
2005-11-24 07:04:20 51°15.42 2°46.159 -999 4.209177 32.492741 -0.74754
2005-11-24 07:04:25 51°15.418 2°46.133 -999 4.209073 32.491847 -0.71383
2005-11-24 07:04:30 51°15.416 2°46.107 -999 4.20897 32.490953 -0.74754
2005-11-24 07:04:35 51°15.415 2°46.08 -999 4.20897 32.490953 -0.74754
2005-11-24 07:04:40 51°15.413 2°46.054 -999 4.20897 32.491604 -0.71383
2005-11-24 07:04:45 51°15.412 2°46.028 -999 4.20897 32.491604 -0.74754
2005-11-24 07:04:50 51°15.41 2°46.002 -999 4.20897 32.491604 -0.74754
2005-11-24 07:04:55 51°15.408 2°45.975 -999 4.208866 32.49136 -0.74754
2005-11-24 07:05:00 51°15.406 2°45.949 -999 4.208866 32.49201 -0.74754
2005-11-24 07:05:05 51°15.404 2°45.923 -999 4.208866 32.49201 -0.74754
2005-11-24 07:05:10 51°15.402 2°45.897 -999 4.208762 32.491117 -0.74754
2005-11-24 07:05:15 51°15.401 2°45.871 -999 4.208762 32.491117 -0.71383
2005-11-24 07:05:20 51°15.399 2°45.844 -999 4.208659 32.490873 -0.74754
2005-11-24 07:05:25 51°15.397 2°45.818 -999 4.208659 32.490873 -0.74754
2005-11-24 07:05:30 51°15.395 2°45.792 -999 4.208659 32.490873 -0.74754
2005-11-24 07:05:35 51°15.394 2°45.766 -999 4.208659 32.490873 -0.74754
2005-11-24 07:05:40 51°15.392 2°45.74 -999 4.208555 32.49063 -0.74754
2005-11-24 07:05:45 51°15.39 2°45.714 -999 4.208451 32.489736 -0.74754
2005-11-24 07:05:50 51°15.389 2°45.688 -999 4.208451 32.489736 -0.74754
2005-11-24 07:05:55 51°15.387 2°45.662 -999 4.208451 32.490386 -0.74754
2005-11-24 07:06:00 51°15.385 2°45.636 -999 4.208451 32.490386 -0.74754
2005-11-24 07:06:05 51°15.384 2°45.61 -999 4.208451 32.490386 -0.74754
2005-11-24 07:06:10 51°15.382 2°45.584 -999 4.208347 32.489492 -0.74754
2005-11-24 07:06:15 51°15.381 2°45.558 -999 4.208347 32.489492 -0.74754
2005-11-24 07:06:20 51°15.379 2°45.531 -999 4.208244 32.489899 -0.74754
2005-11-24 07:06:25 51°15.378 2°45.505 -999 4.20814 32.489005 -0.74754
2005-11-24 07:06:30 51°15.376 2°45.479 -999 4.20814 32.489005 -0.74754
2005-11-24 07:06:35 51°15.375 2°45.453 -999 4.20814 32.489005 -0.74754
2005-11-24 07:06:40 51°15.373 2°45.427 -999 4.208036 32.488762 -0.74754
2005-11-24 07:06:44 51°15.372 2°45.406 -999 4.208036 32.488762 -0.74754
2005-11-24 07:06:50 51°15.37 2°45.375 -999 4.208036 32.488762 -0.74754
2005-11-24 07:06:55 51°15.368 2°45.348 -999 4.208036 32.488762 -0.74754
2005-11-24 07:07:00 51°15.367 2°45.322 -999 4.207933 32.488518 -0.74754
2005-11-24 07:07:05 51°15.366 2°45.296 -999 4.207933 32.488518 -0.74754
2005-11-24 07:07:10 51°15.364 2°45.27 -999 4.207933 32.487868 -0.74754
2005-11-24 07:07:15 51°15.362 2°45.243 -999 4.207725 32.487381 -0.74754
2005-11-24 07:07:20 51°15.361 2°45.217 -999 4.207725 32.487381 -0.74754
2005-11-24 07:07:25 51°15.359 2°45.191 -999 4.207725 32.487381 -0.74754
2005-11-24 07:07:30 51°15.358 2°45.164 -999 4.207725 32.488031 -0.74754
2005-11-24 07:07:35 51°15.356 2°45.138 -999 4.207725 32.488031 -0.74754
2005-11-24 07:07:40 51°15.355 2°45.112 -999 4.207622 32.487137 -0.74754
2005-11-24 07:07:44 51°15.354 2°45.09 -999 4.207622 32.487137 -0.74754
2005-11-24 07:07:50 51°15.352 2°45.059 -999 4.207518 32.486893 -0.74754
2005-11-24 07:07:55 51°15.35 2°45.032 -999 4.207414 32.485999 -0.71383
2005-11-24 07:08:00 51°15.349 2°45.006 -999 4.207414 32.48665 -0.74754
2005-11-24 07:08:05 51°15.347 2°44.98 -999 4.207414 32.48665 -0.74754
2005-11-24 07:08:10 51°15.346 2°44.953 -999 4.207414 32.485999 -0.74754
2005-11-24 07:08:15 51°15.344 2°44.927 -999 4.207207 32.484862 -0.74754
2005-11-24 07:08:20 51°15.343 2°44.901 -999 4.20731 32.486406 -0.74754
2005-11-24 07:08:25 51°15.342 2°44.874 -999 4.207207 32.486163 -0.74754
2005-11-24 07:08:30 51°15.34 2°44.848 -999 4.207103 32.485269 -0.74754
2005-11-24 07:08:35 51°15.338 2°44.821 -999 4.207103 32.485269 -0.74754
2005-11-24 07:08:40 51°15.337 2°44.795 -999 4.207103 32.485269 -0.74754
2005-11-24 07:08:45 51°15.335 2°44.768 -999 4.207103 32.485269 -0.74754
2005-11-24 07:08:50 51°15.334 2°44.742 -999 4.206999 32.485025 -0.74754
2005-11-24 07:08:55 51°15.333 2°44.715 -999 4.206999 32.485025 -0.74754
2005-11-24 07:09:00 51°15.331 2°44.689 -999 4.206896 32.484782 -0.74754
2005-11-24 07:09:05 51°15.33 2°44.663 -999 4.206896 32.484782 -0.74754
2005-11-24 07:09:10 51°15.328 2°44.636 -999 4.206792 32.484538 -0.74754
2005-11-24 07:09:15 51°15.327 2°44.61 -999 4.206792 32.483887 -0.74754
2005-11-24 07:09:20 51°15.326 2°44.583 -999 4.206688 32.482993 -0.74754
2005-11-24 07:09:25 51°15.326 2°44.556 -999 4.206792 32.484538 -0.74754
2005-11-24 07:09:30 51°15.326 2°44.53 -999 4.206688 32.484294 -0.74754
2005-11-24 07:09:35 51°15.325 2°44.503 -999 4.206688 32.484294 -0.74754
2005-11-24 07:09:40 51°15.325 2°44.476 -999 4.206688 32.484294 -0.74754
2005-11-24 07:09:45 51°15.325 2°44.45 -999 4.206585 32.484051 -0.74754
2005-11-24 07:09:50 51°15.324 2°44.423 -999 4.206481 32.483157 -0.74754
2005-11-24 07:09:55 51°15.324 2°44.396 -999 4.206481 32.483807 -0.71383
2005-11-24 07:10:00 51°15.324 2°44.37 -999 4.206377 32.482913 -0.74754
2005-11-24 07:10:05 51°15.323 2°44.343 -999 4.206377 32.482913 -0.74754
2005-11-24 07:10:10 51°15.323 2°44.316 -999 4.206377 32.482913 -0.74754
2005-11-24 07:10:15 51°15.323 2°44.29 -999 4.206274 32.482019 -0.74754
2005-11-24 07:10:20 51°15.323 2°44.263 -999 4.20617 32.481775 -0.74754
2005-11-24 07:10:25 51°15.322 2°44.236 -999 4.20617 32.481775 -0.74754
2005-11-24 07:10:30 51°15.322 2°44.21 -999 4.206066 32.481532 -0.74754
2005-11-24 07:10:35 51°15.322 2°44.183 -999 4.206066 32.481532 -0.74754
2005-11-24 07:10:40 51°15.321 2°44.156 -999 4.206066 32.481532 -0.74754
2005-11-24 07:10:44 51°15.321 2°44.135 -999 4.206066 32.481532 -0.74754
2005-11-24 07:10:50 51°15.321 2°44.103 -999 4.205962 32.480637 -0.74754
2005-11-24 07:10:55 51°15.321 2°44.076 -999 4.205859 32.480394 -0.74754
2005-11-24 07:11:00 51°15.321 2°44.05 -999 4.205859 32.480394 -0.74754
2005-11-24 07:11:05 51°15.321 2°44.023 -999 4.205859 32.480394 -0.74754
2005-11-24 07:11:10 51°15.321 2°43.997 -999 4.205755 32.48015 -0.74754
2005-11-24 07:11:15 51°15.32 2°43.97 -999 4.205755 32.480801 -0.74754
2005-11-24 07:11:20 51°15.32 2°43.944 -999 4.205755 32.480801 -0.74754
2005-11-24 07:11:25 51°15.32 2°43.917 -999 4.205548 32.479012 -0.74754
2005-11-24 07:11:30 51°15.319 2°43.89 -999 4.205651 32.479906 -0.74754
2005-11-24 07:11:35 51°15.319 2°43.863 -999 4.205651 32.479906 -0.74754
2005-11-24 07:11:40 51°15.319 2°43.837 -999 4.205548 32.479663 -0.74754
2005-11-24 07:11:44 51°15.319 2°43.815 -999 4.205548 32.479663 -0.74754
2005-11-24 07:11:50 51°15.319 2°43.784 -999 4.205444 32.478768 -0.71383
2005-11-24 07:11:55 51°15.319 2°43.757 -999 4.20534 32.478525 -0.74754
2005-11-24 07:12:00 51°15.318 2°43.731 -999 4.20534 32.478525 -0.74754
2005-11-24 07:12:05 51°15.318 2°43.704 -999 4.20534 32.478525 -0.74754
2005-11-24 07:12:10 51°15.318 2°43.677 -999 4.20534 32.479175 -0.74754
2005-11-24 07:12:15 51°15.318 2°43.651 -999 4.205237 32.478281 -0.74754
2005-11-24 07:12:20 51°15.318 2°43.624 -999 4.205237 32.478281 -0.74754
2005-11-24 07:12:25 51°15.318 2°43.598 -999 4.205029 32.477143 -0.74754
2005-11-24 07:12:30 51°15.317 2°43.571 -999 4.205133 32.478037 -0.74754
2005-11-24 07:12:35 51°15.317 2°43.544 -999 4.205133 32.478037 -0.74754
2005-11-24 07:12:40 51°15.317 2°43.518 -999 4.205029 32.477143 -0.74754
2005-11-24 07:12:45 51°15.317 2°43.491 -999 4.204925 32.476899 -0.74754
2005-11-24 07:12:50 51°15.317 2°43.464 -999 4.204925 32.476899 -0.74754
2005-11-24 07:12:55 51°15.317 2°43.438 -999 4.204926 32.47755 -0.74754
2005-11-24 07:13:00 51°15.316 2°43.411 -999 4.204822 32.476656 -0.71383
2005-11-24 07:13:05 51°15.316 2°43.385 -999 4.204822 32.476656 -0.71383
2005-11-24 07:13:10 51°15.316 2°43.358 -999 4.204718 32.476412 -0.74754
2005-11-24 07:13:15 51°15.316 2°43.332 -999 4.204718 32.476412 -0.74754
2005-11-24 07:13:20 51°15.316 2°43.305 -999 4.204718 32.477063 -0.74754
2005-11-24 07:13:25 51°15.315 2°43.279 -999 4.204614 32.475518 -0.74754
2005-11-24 07:13:30 51°15.316 2°43.252 -999 4.204614 32.476168 -0.74754
2005-11-24 07:13:35 51°15.315 2°43.226 -999 4.204614 32.476168 -0.74754
2005-11-24 07:13:40 51°15.315 2°43.199 -999 4.204511 32.475925 -0.74754
2005-11-24 07:13:45 51°15.315 2°43.172 -999 4.204407 32.47503 -0.74754
2005-11-24 07:13:50 51°15.315 2°43.146 -999 4.204407 32.475681 -0.74754
2005-11-24 07:13:55 51°15.314 2°43.119 -999 4.204407 32.475681 -0.74754
2005-11-24 07:14:00 51°15.314 2°43.092 -999 4.204303 32.475437 -0.74754
2005-11-24 07:14:05 51°15.313 2°43.066 -999 4.204303 32.475437 -0.74754
2005-11-24 07:14:10 51°15.313 2°43.039 -999 4.2042 32.474543 -0.71383
2005-11-24 07:14:15 51°15.313 2°43.013 -999 4.2042 32.474543 -0.74754
2005-11-24 07:14:20 51°15.314 2°42.986 -999 4.204096 32.473648 -0.74754
2005-11-24 07:14:25 51°15.315 2°42.959 -999 4.204096 32.473648 -0.74754
2005-11-24 07:14:30 51°15.317 2°42.932 -999 4.203992 32.473405 -0.74754
2005-11-24 07:14:35 51°15.319 2°42.906 -999 4.203992 32.473405 -0.74754
2005-11-24 07:14:40 51°15.32 2°42.879 -999 4.203992 32.473405 -0.74754
2005-11-24 07:14:44 51°15.321 2°42.858 -999 4.203889 32.473161 -0.74754
2005-11-24 07:14:50 51°15.323 2°42.826 -999 4.203889 32.473811 -0.74754
2005-11-24 07:14:55 51°15.324 2°42.799 -999 4.203785 32.472917 -0.74754
2005-11-24 07:15:00 51°15.326 2°42.772 -999 4.203681 32.472673 -0.74754
2005-11-24 07:15:05 51°15.327 2°42.746 -999 4.203681 32.472673 -0.74754
2005-11-24 07:15:10 51°15.328 2°42.719 -999 4.203681 32.472673 -0.74754
2005-11-24 07:15:15 51°15.33 2°42.692 -999 4.203681 32.472673 -0.74754
2005-11-24 07:15:20 51°15.331 2°42.666 -999 4.203577 32.472429 -0.74754
2005-11-24 07:15:25 51°15.332 2°42.639 -999 4.203577 32.472429 -0.74754
2005-11-24 07:15:30 51°15.333 2°42.612 -999 4.203474 32.472186 -0.74754
2005-11-24 07:15:35 51°15.335 2°42.586 -999 4.203474 32.472186 -0.74754
2005-11-24 07:15:40 51°15.336 2°42.559 -999 4.203474 32.472186 -0.74754
2005-11-24 07:15:44 51°15.337 2°42.538 -999 4.203474 32.472186 -0.74754
2005-11-24 07:15:50 51°15.339 2°42.506 -999 4.20337 32.471942 -0.74754
2005-11-24 07:15:55 51°15.34 2°42.479 -999 4.203266 32.471047 -0.74754
2005-11-24 07:16:00 51°15.341 2°42.453 -999 4.203266 32.471698 -0.74754
2005-11-24 07:16:05 51°15.343 2°42.426 -999 4.203266 32.471698 -0.74754
2005-11-24 07:16:10 51°15.344 2°42.399 -999 4.203163 32.470804 -0.74754
2005-11-24 07:16:15 51°15.345 2°42.373 -999 4.203059 32.47056 -0.74754
2005-11-24 07:16:20 51°15.346 2°42.346 -999 4.203059 32.47121 -0.74754
2005-11-24 07:16:25 51°15.347 2°42.319 -999 4.203059 32.47121 -0.74754
2005-11-24 07:16:30 51°15.348 2°42.292 -999 4.202955 32.470316 -0.74754
2005-11-24 07:16:35 51°15.35 2°42.266 -999 4.202955 32.470316 -0.74754
2005-11-24 07:16:40 51°15.351 2°42.239 -999 4.202852 32.469421 -0.74754
2005-11-24 07:16:45 51°15.353 2°42.212 -999 4.202852 32.469421 -0.71383
2005-11-24 07:16:50 51°15.354 2°42.186 -999 4.202852 32.470723 -0.74754
2005-11-24 07:16:55 51°15.355 2°42.159 -999 4.202748 32.469828 -0.74754
2005-11-24 07:17:00 51°15.357 2°42.132 -999 4.202644 32.468934 -0.74754
2005-11-24 07:17:05 51°15.358 2°42.105 -999 4.202644 32.468934 -0.74754
2005-11-24 07:17:10 51°15.36 2°42.079 -999 4.202644 32.469584 -0.74754
2005-11-24 07:17:15 51°15.361 2°42.052 -999 4.202541 32.46869 -0.71383
2005-11-24 07:17:20 51°15.362 2°42.025 -999 4.202541 32.46869 -0.74754
2005-11-24 07:17:25 51°15.364 2°41.998 -999 4.202437 32.468446 -0.74754
2005-11-24 07:17:30 51°15.365 2°41.972 -999 4.202437 32.468446 -0.74754
2005-11-24 07:17:35 51°15.367 2°41.945 -999 4.202437 32.468446 -0.74754
2005-11-24 07:17:40 51°15.368 2°41.918 -999 4.202333 32.468202 -0.74754
2005-11-24 07:17:44 51°15.369 2°41.896 -999 4.202229 32.467958 -0.74754
2005-11-24 07:17:50 51°15.37 2°41.864 -999 4.202229 32.467958 -0.74754
2005-11-24 07:17:55 51°15.372 2°41.837 -999 4.202229 32.467958 -0.74754
2005-11-24 07:18:00 51°15.373 2°41.81 -999 4.202126 32.467714 -0.74754
2005-11-24 07:18:05 51°15.374 2°41.783 -999 4.202126 32.467714 -0.74754
2005-11-24 07:18:10 51°15.375 2°41.756 -999 4.202022 32.467471 -0.74754
2005-11-24 07:18:15 51°15.377 2°41.729 -999 4.202022 32.46682 -0.71383
2005-11-24 07:18:20 51°15.378 2°41.702 -999 4.202022 32.467471 -0.74754
2005-11-24 07:18:25 51°15.379 2°41.675 -999 4.201918 32.466576 -0.74754
2005-11-24 07:18:30 51°15.38 2°41.648 -999 4.201918 32.467227 -0.74754
2005-11-24 07:18:35 51°15.382 2°41.621 -999 4.201918 32.467227 -0.74754
2005-11-24 07:18:40 51°15.383 2°41.594 -999 4.201815 32.466983 -0.74754
2005-11-24 07:18:45 51°15.384 2°41.567 -999 4.201815 32.466983 -0.74754
2005-11-24 07:18:50 51°15.386 2°41.54 -999 4.201711 32.466739 -0.74754
2005-11-24 07:18:55 51°15.387 2°41.513 -999 4.201607 32.466495 -0.74754
2005-11-24 07:19:00 51°15.389 2°41.486 -999 4.201607 32.467146 -0.74754
2005-11-24 07:19:05 51°15.39 2°41.459 -999 4.201607 32.467146 -0.74754
2005-11-24 07:19:10 51°15.392 2°41.432 -999 4.201504 32.466902 -0.74754
2005-11-24 07:19:15 51°15.393 2°41.405 -999 4.2014 32.466007 -0.74754
2005-11-24 07:19:20 51°15.394 2°41.378 -999 4.2014 32.465356 -0.74754
2005-11-24 07:19:25 51°15.395 2°41.351 -999 4.201296 32.464462 -0.74754
2005-11-24 07:19:30 51°15.397 2°41.324 -999 4.201296 32.464462 -0.74754
2005-11-24 07:19:35 51°15.398 2°41.298 -999 4.201296 32.464462 -0.74754
2005-11-24 07:19:40 51°15.399 2°41.271 -999 4.201193 32.463567 -0.74754
2005-11-24 07:19:45 51°15.401 2°41.245 -999 4.201089 32.463323 -0.74754
2005-11-24 07:19:50 51°15.402 2°41.221 -999 4.201089 32.464625 -0.74754
2005-11-24 07:19:55 51°15.403 2°41.199 -999 4.200985 32.464381 -0.74754
2005-11-24 07:20:00 51°15.405 2°41.18 -999 4.200985 32.465032 -0.74754
2005-11-24 07:20:05 51°15.406 2°41.162 -999 4.200985 32.465032 -0.74754
2005-11-24 07:20:10 51°15.408 2°41.146 -999 4.200881 32.464788 -0.74754
2005-11-24 07:20:15 51°15.411 2°41.131 -999 4.200778 32.463893 -0.74754
2005-11-24 07:20:20 51°15.413 2°41.118 -999 4.200778 32.463893 -0.74754
2005-11-24 07:20:25 51°15.416 2°41.106 -999 4.200778 32.464544 -0.74754
2005-11-24 07:20:30 51°15.419 2°41.095 -999 4.200674 32.462998 -0.74754
2005-11-24 07:20:35 51°15.422 2°41.084 -999 4.200674 32.462998 -0.74754
2005-11-24 07:20:40 51°15.425 2°41.075 -999 4.200674 32.463649 -0.74754
2005-11-24 07:20:45 51°15.428 2°41.066 -999 4.200467 32.461859 -0.74754
2005-11-24 07:20:50 51°15.431 2°41.057 -999 4.200467 32.46251 -0.74754
2005-11-24 07:20:55 51°15.435 2°41.049 -999 4.200467 32.46251 -0.74754
2005-11-24 07:21:00 51°15.438 2°41.042 -999 4.200467 32.463161 -0.74754
2005-11-24 07:21:05 51°15.442 2°41.035 -999 4.200467 32.463161 -0.74754
2005-11-24 07:21:10 51°15.445 2°41.03 -999 4.200363 32.462917 -0.74754
2005-11-24 07:21:15 51°15.449 2°41.024 -999 4.200259 32.462673 -0.74754
2005-11-24 07:21:20 51°15.453 2°41.019 -999 4.200259 32.462673 -0.71383
2005-11-24 07:21:25 51°15.456 2°41.016 -999 4.200156 32.462429 -0.71383
2005-11-24 07:21:30 51°15.459 2°41.013 -999 4.200156 32.462429 -0.74754
2005-11-24 07:21:35 51°15.462 2°41.011 -999 4.200156 32.462429 -0.74754
2005-11-24 07:21:40 51°15.464 2°41.01 -999 4.200052 32.462185 -0.74754
2005-11-24 07:21:44 51°15.465 2°41.01 -999 4.199948 32.461941 -0.74754
2005-11-24 07:21:50 51°15.468 2°41.011 -999 4.199948 32.461941 -0.74754
2005-11-24 07:21:55 51°15.469 2°41.013 -999 4.199845 32.461697 -0.74754
2005-11-24 07:22:00 51°15.47 2°41.014 -999 4.199845 32.461046 -0.74754
2005-11-24 07:22:05 51°15.472 2°41.016 -999 4.199845 32.461046 -0.74754
2005-11-24 07:22:10 51°15.473 2°41.018 -999 4.199845 32.461046 -0.74754
2005-11-24 07:22:15 51°15.475 2°41.019 -999 4.199637 32.459257 -0.74754
2005-11-24 07:22:20 51°15.476 2°41.021 -999 4.199741 32.460152 -0.74754
2005-11-24 07:22:25 51°15.478 2°41.023 -999 4.199637 32.459908 -0.74754
2005-11-24 07:22:30 51°15.479 2°41.025 -999 4.199533 32.459013 -0.74754
2005-11-24 07:22:35 51°15.481 2°41.026 -999 4.199533 32.459013 -0.74754
2005-11-24 07:22:40 51°15.482 2°41.028 -999 4.199533 32.459013 -0.74754
2005-11-24 07:22:44 51°15.483 2°41.03 -999 4.199533 32.459664 -0.74754
2005-11-24 07:22:50 51°15.485 2°41.032 -999 4.19943 32.458769 -0.74754
2005-11-24 07:22:55 51°15.487 2°41.034 -999 4.199326 32.458525 -0.74754
2005-11-24 07:23:00 51°15.489 2°41.036 -999 4.19943 32.45942 -0.74754
2005-11-24 07:23:04 51°15.49 2°41.037 -999 4.19943 32.45942 -0.74754
2005-11-24 07:23:10 51°15.492 2°41.04 -999 4.199222 32.458281 -0.74754
2005-11-24 07:23:15 51°15.493 2°41.041 -999 4.199222 32.458281 -0.71383
2005-11-24 07:23:20 51°15.495 2°41.043 -999 4.199222 32.458932 -0.74754
2005-11-24 07:23:24 51°15.496 2°41.045 -999 4.199222 32.458932 -0.74754
2005-11-24 07:23:30 51°15.498 2°41.047 -999 4.199119 32.458037 -0.74754
2005-11-24 07:23:35 51°15.499 2°41.049 -999 4.199119 32.458037 -0.74754
2005-11-24 07:23:40 51°15.501 2°41.051 -999 4.199119 32.458037 -0.74754
2005-11-24 07:23:44 51°15.502 2°41.052 -999 4.199015 32.457793 -0.74754
2005-11-24 07:23:50 51°15.504 2°41.055 -999 4.199015 32.457793 -0.74754
2005-11-24 07:23:55 51°15.506 2°41.057 -999 4.198911 32.456898 -0.71383
2005-11-24 07:24:00 51°15.507 2°41.059 -999 4.198808 32.456003 -0.74754
2005-11-24 07:24:04 51°15.508 2°41.06 -999 4.198808 32.456003 -0.74754
2005-11-24 07:24:10 51°15.51 2°41.063 -999 4.199015 32.458444 -0.71383
2005-11-24 07:24:15 51°15.512 2°41.065 -999 4.198808 32.456654 -0.74754
2005-11-24 07:24:20 51°15.513 2°41.067 -999 4.198704 32.45641 -0.74754
2005-11-24 07:24:24 51°15.514 2°41.069 -999 4.198704 32.45641 -0.74754
2005-11-24 07:24:30 51°15.516 2°41.071 -999 4.198704 32.45641 -0.74754
2005-11-24 07:24:35 51°15.518 2°41.073 -999 4.198704 32.45641 -0.74754
2005-11-24 07:24:40 51°15.519 2°41.076 -999 4.198704 32.457061 -0.74754
2005-11-24 07:24:45 51°15.521 2°41.078 -999 4.1986 32.456166 -0.74754
2005-11-24 07:24:50 51°15.522 2°41.08 -999 4.198497 32.455271 -0.74754
2005-11-24 07:24:55 51°15.524 2°41.082 -999 4.198497 32.455921 -0.74754
2005-11-24 07:25:00 51°15.526 2°41.084 -999 4.198497 32.455921 -0.71383
2005-11-24 07:25:05 51°15.528 2°41.085 -999 4.198497 32.455921 -0.71383
2005-11-24 07:25:10 51°15.532 2°41.086 -999 4.198393 32.455026 -0.74754
2005-11-24 07:25:15 51°15.537 2°41.085 -999 4.198393 32.455026 -0.74754
2005-11-24 07:25:20 51°15.542 2°41.084 -999 4.198393 32.455677 -0.74754
2005-11-24 07:25:25 51°15.548 2°41.08 -999 4.198289 32.456084 -0.74754
2005-11-24 07:25:30 51°15.554 2°41.074 -999 4.198185 32.45584 -0.74754
2005-11-24 07:25:35 51°15.56 2°41.067 -999 4.198185 32.45584 -0.74754
2005-11-24 07:25:40 51°15.566 2°41.058 -999 4.198186 32.457142 -0.74754
2005-11-24 07:25:45 51°15.572 2°41.047 -999 4.198186 32.457793 -0.74754
2005-11-24 07:25:50 51°15.576 2°41.034 -999 4.198186 32.458444 -0.74754
2005-11-24 07:25:55 51°15.58 2°41.021 -999 4.198186 32.459096 -0.74754
2005-11-24 07:26:00 51°15.583 2°41.006 -999 4.198186 32.459096 -0.74754
2005-11-24 07:26:05 51°15.585 2°40.989 -999 4.198186 32.459096 -0.74754
2005-11-24 07:26:10 51°15.586 2°40.971 -999 4.198082 32.457549 -0.74754
2005-11-24 07:26:15 51°15.587 2°40.951 -999 4.198082 32.456898 -0.74754
2005-11-24 07:26:20 51°15.588 2°40.929 -999 4.198082 32.454945 -0.74754
2005-11-24 07:26:25 51°15.588 2°40.906 -999 4.197978 32.453399 -0.74754
2005-11-24 07:26:30 51°15.589 2°40.883 -999 4.197978 32.452748 -0.74754
2005-11-24 07:26:35 51°15.59 2°40.858 -999 4.197978 32.452748 -0.74754
2005-11-24 07:26:40 51°15.591 2°40.833 -999 4.197978 32.45405 -0.74754
2005-11-24 07:26:45 51°15.59 2°40.808 -999 4.197874 32.454457 -0.74754
2005-11-24 07:26:50 51°15.589 2°40.782 -999 4.197874 32.455108 -0.74754
2005-11-24 07:26:55 51°15.588 2°40.756 -999 4.197771 32.454864 -0.74754
2005-11-24 07:27:00 51°15.587 2°40.729 -999 4.197771 32.454864 -0.71383
2005-11-24 07:27:05 51°15.585 2°40.703 -999 4.197771 32.454864 -0.71383
2005-11-24 07:27:10 51°15.583 2°40.677 -999 4.197667 32.45462 -0.74754
2005-11-24 07:27:15 51°15.582 2°40.651 -999 4.197667 32.45462 -0.74754
2005-11-24 07:27:20 51°15.579 2°40.624 -999 4.197563 32.454376 -0.74754
2005-11-24 07:27:24 51°15.578 2°40.603 -999 4.197563 32.454376 -0.71383
2005-11-24 07:27:30 51°15.576 2°40.571 -999 4.19746 32.453481 -0.74754
2005-11-24 07:27:35 51°15.574 2°40.545 -999 4.19746 32.453481 -0.74754
2005-11-24 07:27:40 51°15.573 2°40.518 -999 4.19746 32.453481 -0.74754
2005-11-24 07:27:45 51°15.571 2°40.492 -999 4.197356 32.452585 -0.74754
2005-11-24 07:27:50 51°15.57 2°40.465 -999 4.197356 32.453237 -0.74754
2005-11-24 07:27:55 51°15.569 2°40.439 -999 4.197252 32.452992 -0.74754
2005-11-24 07:28:00 51°15.567 2°40.412 -999 4.197252 32.453643 -0.74754
2005-11-24 07:28:05 51°15.565 2°40.386 -999 4.197252 32.453643 -0.74754
2005-11-24 07:28:10 51°15.564 2°40.359 -999 4.197149 32.452748 -0.74754
2005-11-24 07:28:15 51°15.562 2°40.332 -999 4.197149 32.452748 -0.71383
2005-11-24 07:28:20 51°15.56 2°40.306 -999 4.197149 32.453399 -0.74754
2005-11-24 07:28:25 51°15.559 2°40.279 -999 4.197045 32.453155 -0.74754
2005-11-24 07:28:30 51°15.558 2°40.252 -999 4.196941 32.45226 -0.74754
2005-11-24 07:28:35 51°15.556 2°40.225 -999 4.196941 32.45226 -0.74754
2005-11-24 07:28:40 51°15.555 2°40.199 -999 4.196838 32.452016 -0.74754
2005-11-24 07:28:45 51°15.553 2°40.172 -999 4.196838 32.452016 -0.74754
2005-11-24 07:28:50 51°15.552 2°40.146 -999 4.196734 32.451772 -0.74754
2005-11-24 07:28:55 51°15.55 2°40.119 -999 4.196734 32.452423 -0.74754
2005-11-24 07:29:00 51°15.549 2°40.092 -999 4.196734 32.452423 -0.74754
2005-11-24 07:29:05 51°15.548 2°40.066 -999 4.196734 32.452423 -0.74754
2005-11-24 07:29:10 51°15.547 2°40.039 -999 4.19663 32.451528 -0.74754
2005-11-24 07:29:15 51°15.545 2°40.013 -999 4.19663 32.451528 -0.71383